| time (UTC) | temp F | wind direction | speed MPH | gust MPH | rain 1hr in | rain 24hr in | rain mn in | humidity % | barometer mb |
| 20260831024604 | 77 | 336 | 0.0 | 3.0 | 0.00 | 0.00 | 0.00 | 52 | 1007.3 |
| 20260831024424 | 77 | 332 | 0.0 | 3.0 | 0.00 | 0.00 | 0.00 | 52 | 1007.3 |
| 20260831024204 | 78 | 320 | 0.0 | 3.0 | 0.00 | 0.00 | 0.00 | 52 | 1007.3 |
| 20260831024004 | 78 | 329 | 0.0 | 3.0 | 0.00 | 0.00 | 0.00 | 51 | 1007.2 |
| 20260831023803 | 78 | 329 | 0.0 | 3.0 | 0.00 | 0.00 | 0.00 | 51 | 1007.3 |
| 20260831023603 | 78 | 324 | 0.0 | 3.0 | 0.00 | 0.00 | 0.00 | 50 | 1007.3 |
| 20260831023404 | 78 | 324 | 0.0 | 3.0 | 0.00 | 0.00 | 0.00 | 49 | 1007.2 |
| 20260831023225 | 78 | 326 | 0.0 | 3.0 | 0.00 | 0.00 | 0.00 | 49 | 1007.2 |
| 20260831023025 | 78 | 320 | 0.0 | 3.0 | 0.00 | 0.00 | 0.00 | 48 | 1007.2 |
| 20260831022804 | 79 | 320 | 0.0 | 3.0 | 0.00 | 0.00 | 0.00 | 47 | 1007.2 |
| 20260831022604 | 79 | 309 | 0.0 | 2.0 | 0.00 | 0.00 | 0.00 | 47 | 1007.2 |
| 20260831022404 | 79 | 300 | 0.0 | 4.0 | 0.00 | 0.00 | 0.00 | 45 | 1007.1 |
| 20260831022224 | 79 | 307 | 0.0 | 4.0 | 0.00 | 0.00 | 0.00 | 45 | 1007.2 |
| 20260831022003 | 79 | 320 | 1.0 | 4.0 | 0.00 | 0.00 | 0.00 | 44 | 1007.1 |
| 20260831021804 | 80 | 321 | 1.0 | 4.0 | 0.00 | 0.00 | 0.00 | 44 | 1007.1 |
| 20260831021603 | 80 | 322 | 1.0 | 4.0 | 0.00 | 0.00 | 0.00 | 43 | 1007.1 |
| 20260831021404 | 80 | 321 | 1.0 | 4.0 | 0.00 | 0.00 | 0.00 | 43 | 1007.1 |
| 20260831021203 | 80 | 320 | 1.0 | 4.0 | 0.00 | 0.00 | 0.00 | 42 | 1007.1 |
| 20260831021003 | 80 | 307 | 1.0 | 4.0 | 0.00 | 0.00 | 0.00 | 41 | 1007.1 |
| 20260831020825 | 81 | 312 | 1.0 | 4.0 | 0.00 | 0.00 | 0.00 | 41 | 1007.1 |
| 20260831020624 | 81 | 318 | 1.0 | 4.0 | 0.00 | 0.00 | 0.00 | 41 | 1007.1 |
| 20260831020403 | 81 | 320 | 1.0 | 4.0 | 0.00 | 0.00 | 0.00 | 40 | 1007.1 |
| 20260831020203 | 81 | 323 | 1.0 | 4.0 | 0.00 | 0.00 | 0.00 | 40 | 1007.1 |
| 20260831020003 | 81 | 315 | 1.0 | 4.0 | 0.00 | 0.00 | 0.00 | 39 | 1007.0 |
| 20260831015804 | 82 | 307 | 2.0 | 5.0 | 0.00 | 0.00 | 0.00 | 39 | 1007.1 |
| 20260831015603 | 82 | 298 | 2.0 | 5.0 | 0.00 | 0.00 | 0.00 | 39 | 1007.2 |
| 20260831015403 | 82 | 295 | 2.0 | 5.0 | 0.00 | 0.00 | 0.00 | 38 | 1007.1 |
| 20260831015224 | 82 | 291 | 3.0 | 8.0 | 0.00 | 0.00 | 0.00 | 37 | 1007.2 |
| 20260831015003 | 82 | 290 | 3.0 | 8.0 | 0.00 | 0.00 | 0.00 | 37 | 1007.2 |
| 20260831014803 | 82 | 289 | 4.0 | 8.0 | 0.00 | 0.00 | 0.00 | 36 | 1007.1 |
| 20260831014624 | 82 | 290 | 4.0 | 8.0 | 0.00 | 0.00 | 0.00 | 35 | 1007.1 |
| 20260831014404 | 82 | 290 | 4.0 | 8.0 | 0.00 | 0.00 | 0.00 | 34 | 1007.2 |
| 20260831014204 | 82 | 290 | 3.0 | 7.0 | 0.00 | 0.00 | 0.00 | 32 | 1007.2 |
| 20260831014003 | 83 | 290 | 3.0 | 7.0 | 0.00 | 0.00 | 0.00 | 32 | 1007.2 |
| 20260831013803 | 83 | 291 | 3.0 | 7.0 | 0.00 | 0.00 | 0.00 | 33 | 1007.3 |
| 20260831013604 | 83 | 290 | 3.0 | 7.0 | 0.00 | 0.00 | 0.00 | 34 | 1007.2 |
| 20260831013403 | 83 | 292 | 3.0 | 9.0 | 0.00 | 0.00 | 0.00 | 33 | 1007.3 |
| 20260831013203 | 83 | 293 | 3.0 | 9.0 | 0.00 | 0.00 | 0.00 | 31 | 1007.3 |
| 20260831013004 | 83 | 296 | 3.0 | 9.0 | 0.00 | 0.00 | 0.00 | 31 | 1007.3 |
| 20260831012803 | 83 | 297 | 3.0 | 9.0 | 0.00 | 0.00 | 0.00 | 31 | 1007.2 |
| 20260831012603 | 83 | 299 | 3.0 | 9.0 | 0.00 | 0.00 | 0.00 | 31 | 1007.2 |
| 20260831012403 | 83 | 300 | 3.0 | 8.0 | 0.00 | 0.00 | 0.00 | 33 | 1007.2 |
| 20260831012203 | 84 | 302 | 3.0 | 7.0 | 0.00 | 0.00 | 0.00 | 39 | 1007.2 |
| 20260831012003 | 84 | 302 | 3.0 | 8.0 | 0.00 | 0.00 | 0.00 | 38 | 1007.2 |
| 20260831011804 | 84 | 299 | 3.0 | 8.0 | 0.00 | 0.00 | 0.00 | 38 | 1007.1 |
| 20260831011603 | 84 | 301 | 3.0 | 8.0 | 0.00 | 0.00 | 0.00 | 36 | 1007.2 |
| 20260831011403 | 84 | 303 | 3.0 | 8.0 | 0.00 | 0.00 | 0.00 | 37 | 1007.1 |
| 20260831011204 | 84 | 305 | 3.0 | 9.0 | 0.00 | 0.00 | 0.00 | 38 | 1007.2 |
| 20260831011004 | 84 | 303 | 3.0 | 9.0 | 0.00 | 0.00 | 0.00 | 41 | 1007.1 |
| 20260831010804 | 84 | 300 | 3.0 | 9.0 | 0.00 | 0.00 | 0.00 | 42 | 1007.1 |
| 20260831010603 | 84 | 299 | 3.0 | 9.0 | 0.00 | 0.00 | 0.00 | 42 | 1007.1 |
| 20260831010403 | 84 | 295 | 4.0 | 9.0 | 0.00 | 0.00 | 0.00 | 42 | 1007.1 |
| 20260831010225 | 84 | 291 | 3.0 | 8.0 | 0.00 | 0.00 | 0.00 | 41 | 1007.1 |
| 20260831010004 | 84 | 292 | 4.0 | 8.0 | 0.00 | 0.00 | 0.00 | 39 | 1007.1 |
| 20260831005803 | 84 | 294 | 4.0 | 10.0 | 0.00 | 0.00 | 0.00 | 41 | 1007.0 |
| 20260831005604 | 84 | 290 | 4.0 | 10.0 | 0.00 | 0.00 | 0.00 | 41 | 1007.0 |
| 20260831005403 | 84 | 292 | 4.0 | 10.0 | 0.00 | 0.00 | 0.00 | 42 | 1007.1 |
| 20260831005203 | 84 | 293 | 4.0 | 10.0 | 0.00 | 0.00 | 0.00 | 42 | 1007.1 |
| 20260831005003 | 85 | 294 | 4.0 | 10.0 | 0.00 | 0.00 | 0.00 | 40 | 1007.1 |
| 20260831004804 | 85 | 295 | 4.0 | 6.0 | 0.00 | 0.00 | 0.00 | 40 | 1007.0 |
| 20260831004624 | 85 | 299 | 4.0 | 7.0 | 0.00 | 0.00 | 0.00 | 40 | 1007.0 |
| 20260831004403 | 85 | 299 | 3.0 | 9.0 | 0.00 | 0.00 | 0.00 | 40 | 1006.9 |
| 20260831004224 | 85 | 298 | 4.0 | 9.0 | 0.00 | 0.00 | 0.00 | 40 | 1007.0 |
| 20260831004003 | 85 | 296 | 4.0 | 9.0 | 0.00 | 0.00 | 0.00 | 40 | 1007.0 |
| 20260831003803 | 86 | 298 | 4.0 | 9.0 | 0.00 | 0.00 | 0.00 | 41 | 1007.0 |
| 20260831003603 | 86 | 298 | 4.0 | 9.0 | 0.00 | 0.00 | 0.00 | 41 | 1006.9 |
| 20260831003403 | 86 | 297 | 4.0 | 9.0 | 0.00 | 0.00 | 0.00 | 41 | 1006.9 |
| 20260831003203 | 86 | 295 | 5.0 | 9.0 | 0.00 | 0.00 | 0.00 | 40 | 1006.9 |
| 20260831003004 | 86 | 294 | 4.0 | 9.0 | 0.00 | 0.00 | 0.00 | 41 | 1006.9 |
| 20260831002803 | 86 | 291 | 3.0 | 9.0 | 0.00 | 0.00 | 0.00 | 41 | 1006.9 |
| 20260831002603 | 86 | 287 | 3.0 | 9.0 | 0.00 | 0.00 | 0.00 | 41 | 1007.0 |
| 20260831002404 | 86 | 288 | 3.0 | 9.0 | 0.00 | 0.00 | 0.00 | 41 | 1006.9 |
| 20260831002204 | 86 | 286 | 3.0 | 9.0 | 0.00 | 0.00 | 0.00 | 41 | 1007.0 |
| 20260831002003 | 86 | 289 | 4.0 | 9.0 | 0.00 | 0.00 | 0.00 | 42 | 1006.9 |
| 20260831001825 | 86 | 289 | 4.0 | 9.0 | 0.00 | 0.00 | 0.00 | 42 | 1006.9 |
| 20260831001604 | 86 | 292 | 4.0 | 10.0 | 0.00 | 0.00 | 0.00 | 42 | 1006.9 |
| 20260831001425 | 86 | 292 | 4.0 | 10.0 | 0.00 | 0.00 | 0.00 | 41 | 1006.9 |
| 20260831001203 | 86 | 292 | 4.0 | 10.0 | 0.00 | 0.00 | 0.00 | 41 | 1006.9 |
| 20260831001025 | 86 | 292 | 4.0 | 10.0 | 0.00 | 0.00 | 0.00 | 42 | 1006.8 |
| 20260831000803 | 86 | 292 | 4.0 | 9.0 | 0.00 | 0.00 | 0.00 | 41 | 1006.9 |
| 20260831000604 | 86 | 290 | 4.0 | 9.0 | 0.00 | 0.00 | 0.00 | 41 | 1006.9 |
| 20260831000403 | 86 | 290 | 4.0 | 9.0 | 0.00 | 0.00 | 0.00 | 40 | 1006.8 |
| 20260831000204 | 86 | 292 | 4.0 | 9.0 | 0.00 | 0.00 | 0.00 | 40 | 1006.8 |
| 20260831000004 | 86 | 293 | 4.0 | 9.0 | 0.00 | 0.00 | 0.00 | 40 | 1006.8 |
| 20260830235803 | 87 | 295 | 4.0 | 9.0 | 0.00 | 0.00 | 0.00 | 40 | 1006.8 |
| 20260830235624 | 87 | 296 | 4.0 | 9.0 | 0.00 | 0.00 | 0.00 | 40 | 1006.8 |
| 20260830235425 | 87 | 297 | 4.0 | 9.0 | 0.00 | 0.00 | 0.00 | 40 | 1006.8 |
| 20260830235203 | 87 | 296 | 4.0 | 10.0 | 0.00 | 0.00 | 0.00 | 41 | 1006.8 |
| 20260830235004 | 86 | 294 | 5.0 | 10.0 | 0.00 | 0.00 | 0.00 | 40 | 1006.7 |
| 20260830234803 | 86 | 294 | 5.0 | 10.0 | 0.00 | 0.00 | 0.00 | 40 | 1006.8 |
| 20260830234604 | 86 | 294 | 6.0 | 11.0 | 0.00 | 0.00 | 0.00 | 40 | 1006.8 |
| 20260830234403 | 86 | 293 | 6.0 | 13.0 | 0.00 | 0.00 | 0.00 | 40 | 1006.8 |
| 20260830234203 | 87 | 294 | 6.0 | 13.0 | 0.00 | 0.00 | 0.00 | 39 | 1006.8 |
| 20260830234003 | 87 | 294 | 5.0 | 13.0 | 0.00 | 0.00 | 0.00 | 39 | 1006.8 |
| 20260830233804 | 87 | 296 | 5.0 | 13.0 | 0.00 | 0.00 | 0.00 | 39 | 1006.8 |
| 20260830233604 | 88 | 295 | 5.0 | 13.0 | 0.00 | 0.00 | 0.00 | 38 | 1006.8 |
| 20260830233404 | 87 | 297 | 4.0 | 10.0 | 0.00 | 0.00 | 0.00 | 38 | 1006.8 |
| 20260830233203 | 87 | 295 | 5.0 | 10.0 | 0.00 | 0.00 | 0.00 | 38 | 1006.7 |
| 20260830233003 | 87 | 297 | 5.0 | 9.0 | 0.00 | 0.00 | 0.00 | 38 | 1006.8 |
| 20260830232803 | 87 | 299 | 5.0 | 9.0 | 0.00 | 0.00 | 0.00 | 37 | 1006.7 |
| 20260830232603 | 88 | 305 | 5.0 | 9.0 | 0.00 | 0.00 | 0.00 | 37 | 1006.8 |
| 20260830232424 | 88 | 308 | 5.0 | 9.0 | 0.00 | 0.00 | 0.00 | 37 | 1006.7 |
| 20260830232204 | 88 | 312 | 4.0 | 9.0 | 0.00 | 0.00 | 0.00 | 37 | 1006.7 |
| 20260830232004 | 88 | 314 | 4.0 | 9.0 | 0.00 | 0.00 | 0.00 | 36 | 1006.7 |
| 20260830231803 | 88 | 311 | 4.0 | 12.0 | 0.00 | 0.00 | 0.00 | 35 | 1006.7 |
| 20260830231603 | 88 | 304 | 5.0 | 12.0 | 0.00 | 0.00 | 0.00 | 36 | 1006.7 |
| 20260830231404 | 88 | 292 | 5.0 | 12.0 | 0.00 | 0.00 | 0.00 | 35 | 1006.7 |
| 20260830231204 | 88 | 290 | 5.0 | 12.0 | 0.00 | 0.00 | 0.00 | 36 | 1006.7 |
| 20260830231003 | 88 | 293 | 6.0 | 12.0 | 0.00 | 0.00 | 0.00 | 36 | 1006.7 |
| 20260830230803 | 88 | 291 | 6.0 | 12.0 | 0.00 | 0.00 | 0.00 | 35 | 1006.8 |
| 20260830230603 | 88 | 291 | 6.0 | 12.0 | 0.00 | 0.00 | 0.00 | 35 | 1006.8 |
| 20260830230404 | 88 | 298 | 6.0 | 12.0 | 0.00 | 0.00 | 0.00 | 35 | 1006.8 |
| 20260830230204 | 89 | 298 | 6.0 | 12.0 | 0.00 | 0.00 | 0.00 | 34 | 1006.8 |
| 20260830230004 | 89 | 295 | 5.0 | 12.0 | 0.00 | 0.00 | 0.00 | 34 | 1006.8 |
| 20260830225803 | 89 | 296 | 5.0 | 11.0 | 0.00 | 0.00 | 0.00 | 34 | 1006.8 |
| 20260830225603 | 89 | 299 | 5.0 | 11.0 | 0.00 | 0.00 | 0.00 | 34 | 1006.8 |
| 20260830225403 | 89 | 305 | 4.0 | 10.0 | 0.00 | 0.00 | 0.00 | 33 | 1006.8 |
| 20260830225204 | 89 | 304 | 4.0 | 11.0 | 0.00 | 0.00 | 0.00 | 34 | 1006.8 |
| 20260830225003 | 89 | 304 | 5.0 | 11.0 | 0.00 | 0.00 | 0.00 | 33 | 1006.8 |
| 20260830224803 | 89 | 303 | 4.0 | 11.0 | 0.00 | 0.00 | 0.00 | 34 | 1006.8 |
| 20260830224603 | 89 | 301 | 4.0 | 11.0 | 0.00 | 0.00 | 0.00 | 33 | 1006.8 |
| 20260830224404 | 89 | 291 | 4.0 | 11.0 | 0.00 | 0.00 | 0.00 | 33 | 1006.9 |
| 20260830224204 | 89 | 292 | 4.0 | 9.0 | 0.00 | 0.00 | 0.00 | 31 | 1006.9 |
| 20260830224004 | 89 | 292 | 4.0 | 10.0 | 0.00 | 0.00 | 0.00 | 31 | 1006.9 |
| 20260830223803 | 89 | 292 | 4.0 | 12.0 | 0.00 | 0.00 | 0.00 | 30 | 1006.9 |
| 20260830223604 | 89 | 293 | 5.0 | 12.0 | 0.00 | 0.00 | 0.00 | 29 | 1006.9 |
| 20260830223403 | 89 | 296 | 6.0 | 12.0 | 0.00 | 0.00 | 0.00 | 30 | 1007.0 |
| 20260830223204 | 89 | 296 | 5.0 | 12.0 | 0.00 | 0.00 | 0.00 | 29 | 1007.0 |
| 20260830223004 | 89 | 297 | 5.0 | 12.0 | 0.00 | 0.00 | 0.00 | 29 | 1007.0 |
| 20260830222803 | 89 | 297 | 5.0 | 11.0 | 0.00 | 0.00 | 0.00 | 29 | 1007.0 |
| 20260830222604 | 89 | 299 | 4.0 | 10.0 | 0.00 | 0.00 | 0.00 | 29 | 1007.0 |
| 20260830222403 | 89 | 303 | 4.0 | 10.0 | 0.00 | 0.00 | 0.00 | 30 | 1007.0 |
| 20260830222203 | 89 | 304 | 4.0 | 10.0 | 0.00 | 0.00 | 0.00 | 29 | 1007.1 |
| 20260830222003 | 89 | 310 | 4.0 | 10.0 | 0.00 | 0.00 | 0.00 | 29 | 1007.1 |
| 20260830221803 | 89 | 311 | 4.0 | 11.0 | 0.00 | 0.00 | 0.00 | 31 | 1007.1 |
| 20260830221603 | 89 | 306 | 5.0 | 11.0 | 0.00 | 0.00 | 0.00 | 32 | 1007.1 |
| 20260830221403 | 89 | 302 | 5.0 | 11.0 | 0.00 | 0.00 | 0.00 | 32 | 1007.2 |
| 20260830221203 | 89 | 300 | 5.0 | 11.0 | 0.00 | 0.00 | 0.00 | 32 | 1007.2 |
| 20260830221024 | 88 | 296 | 5.0 | 12.0 | 0.00 | 0.00 | 0.00 | 33 | 1007.2 |
| 20260830220803 | 89 | 299 | 5.0 | 12.0 | 0.00 | 0.00 | 0.00 | 32 | 1007.2 |
| 20260830220604 | 88 | 301 | 5.0 | 14.0 | 0.00 | 0.00 | 0.00 | 33 | 1007.2 |
| 20260830220404 | 89 | 299 | 6.0 | 14.0 | 0.00 | 0.00 | 0.00 | 32 | 1007.3 |
| 20260830220204 | 89 | 301 | 6.0 | 14.0 | 0.00 | 0.00 | 0.00 | 33 | 1007.4 |
| 20260830220004 | 89 | 300 | 6.0 | 14.0 | 0.00 | 0.00 | 0.00 | 33 | 1007.4 |
| 20260830215803 | 89 | 299 | 6.0 | 14.0 | 0.00 | 0.00 | 0.00 | 33 | 1007.4 |
| 20260830215603 | 89 | 299 | 5.0 | 10.0 | 0.00 | 0.00 | 0.00 | 32 | 1007.4 |
| 20260830215403 | 89 | 300 | 5.0 | 9.0 | 0.00 | 0.00 | 0.00 | 33 | 1007.5 |
| 20260830215204 | 90 | 299 | 5.0 | 9.0 | 0.00 | 0.00 | 0.00 | 33 | 1007.6 |
| 20260830215024 | 90 | 302 | 4.0 | 9.0 | 0.00 | 0.00 | 0.00 | 33 | 1007.5 |
| 20260830214803 | 90 | 303 | 3.0 | 9.0 | 0.00 | 0.00 | 0.00 | 33 | 1007.6 |
| 20260830214604 | 90 | 298 | 2.0 | 8.0 | 0.00 | 0.00 | 0.00 | 33 | 1007.6 |
| 20260830214403 | 90 | 305 | 2.0 | 6.0 | 0.00 | 0.00 | 0.00 | 33 | 1007.6 |
| 20260830214203 | 89 | 308 | 2.0 | 6.0 | 0.00 | 0.00 | 0.00 | 32 | 1007.6 |
| 20260830214025 | 89 | 306 | 1.0 | 6.0 | 0.00 | 0.00 | 0.00 | 33 | 1007.6 |
| 20260830213803 | 90 | 310 | 2.0 | 6.0 | 0.00 | 0.00 | 0.00 | 31 | 1007.6 |
| 20260830213603 | 90 | 317 | 2.0 | 11.0 | 0.00 | 0.00 | 0.00 | 33 | 1007.6 |
| 20260830213403 | 90 | 307 | 3.0 | 11.0 | 0.00 | 0.00 | 0.00 | 34 | 1007.7 |
| 20260830213203 | 89 | 308 | 4.0 | 11.0 | 0.00 | 0.00 | 0.00 | 33 | 1007.8 |
| 20260830213003 | 89 | 309 | 4.0 | 11.0 | 0.00 | 0.00 | 0.00 | 32 | 1007.8 |
| 20260830212803 | 89 | 308 | 4.0 | 11.0 | 0.00 | 0.00 | 0.00 | 32 | 1007.9 |
| 20260830212604 | 90 | 314 | 3.0 | 11.0 | 0.00 | 0.00 | 0.00 | 31 | 1007.9 |
| 20260830212404 | 90 | 26 | 3.0 | 7.0 | 0.00 | 0.00 | 0.00 | 31 | 1007.8 |
| 20260830212203 | 89 | 351 | 3.0 | 8.0 | 0.00 | 0.00 | 0.00 | 31 | 1007.8 |
| 20260830212024 | 89 | 282 | 3.0 | 8.0 | 0.00 | 0.00 | 0.00 | 30 | 1007.8 |
| 20260830211803 | 89 | 274 | 4.0 | 8.0 | 0.00 | 0.00 | 0.00 | 28 | 1008.0 |
| 20260830211604 | 89 | 289 | 4.0 | 8.0 | 0.00 | 0.00 | 0.00 | 28 | 1008.0 |
| 20260830211425 | 89 | 291 | 4.0 | 8.0 | 0.00 | 0.00 | 0.00 | 28 | 1008.0 |
| 20260830211203 | 89 | 301 | 4.0 | 10.0 | 0.00 | 0.00 | 0.00 | 29 | 1008.0 |
| 20260830211003 | 89 | 305 | 4.0 | 10.0 | 0.00 | 0.00 | 0.00 | 28 | 1008.1 |
| 20260830210803 | 89 | 312 | 4.0 | 10.0 | 0.00 | 0.00 | 0.00 | 29 | 1008.2 |
| 20260830210603 | 89 | 306 | 4.0 | 11.0 | 0.00 | 0.00 | 0.00 | 28 | 1008.2 |
| 20260830210403 | 89 | 309 | 4.0 | 11.0 | 0.00 | 0.00 | 0.00 | 28 | 1008.1 |
| 20260830210203 | 89 | 306 | 4.0 | 11.0 | 0.00 | 0.00 | 0.00 | 30 | 1008.1 |
| 20260830210025 | 89 | 299 | 4.0 | 11.0 | 0.00 | 0.00 | 0.00 | 30 | 1008.0 |
| 20260830205804 | 89 | 298 | 4.0 | 11.0 | 0.00 | 0.00 | 0.00 | 30 | 1008.1 |
| 20260830205603 | 89 | 299 | 3.0 | 9.0 | 0.00 | 0.00 | 0.00 | 30 | 1008.2 |
| 20260830205403 | 89 | 289 | 3.0 | 9.0 | 0.00 | 0.00 | 0.00 | 31 | 1008.2 |
| 20260830205224 | 89 | 288 | 3.0 | 9.0 | 0.00 | 0.00 | 0.00 | 29 | 1008.2 |
| 20260830205003 | 89 | 296 | 3.0 | 8.0 | 0.00 | 0.00 | 0.00 | 31 | 1008.2 |
| 20260830204824 | 88 | 286 | 3.0 | 10.0 | 0.00 | 0.00 | 0.00 | 31 | 1008.3 |
| 20260830204603 | 88 | 284 | 4.0 | 10.0 | 0.00 | 0.00 | 0.00 | 30 | 1008.3 |
| 20260830204403 | 88 | 287 | 4.0 | 10.0 | 0.00 | 0.00 | 0.00 | 32 | 1008.2 |
| 20260830204203 | 88 | 286 | 4.0 | 10.0 | 0.00 | 0.00 | 0.00 | 30 | 1008.3 |
| 20260830204004 | 89 | 288 | 4.0 | 12.0 | 0.00 | 0.00 | 0.00 | 30 | 1008.3 |
| 20260830203803 | 89 | 292 | 4.0 | 12.0 | 0.00 | 0.00 | 0.00 | 31 | 1008.3 |
| 20260830203624 | 89 | 293 | 4.0 | 12.0 | 0.00 | 0.00 | 0.00 | 32 | 1008.4 |
| 20260830203404 | 88 | 293 | 4.0 | 12.0 | 0.00 | 0.00 | 0.00 | 31 | 1008.5 |
| 20260830203204 | 89 | 296 | 5.0 | 12.0 | 0.00 | 0.00 | 0.00 | 31 | 1008.4 |
| 20260830203004 | 89 | 294 | 4.0 | 10.0 | 0.00 | 0.00 | 0.00 | 30 | 1008.4 |
| 20260830202804 | 88 | 293 | 4.0 | 10.0 | 0.00 | 0.00 | 0.00 | 31 | 1008.4 |
| 20260830202603 | 88 | 295 | 4.0 | 10.0 | 0.00 | 0.00 | 0.00 | 31 | 1008.4 |
| 20260830202403 | 88 | 299 | 4.0 | 11.0 | 0.00 | 0.00 | 0.00 | 32 | 1008.5 |
| 20260830202203 | 88 | 295 | 3.0 | 11.0 | 0.00 | 0.00 | 0.00 | 31 | 1008.5 |
| 20260830202003 | 88 | 293 | 3.0 | 11.0 | 0.00 | 0.00 | 0.00 | 33 | 1008.5 |
| 20260830201803 | 88 | 294 | 4.0 | 11.0 | 0.00 | 0.00 | 0.00 | 32 | 1008.4 |
| 20260830201603 | 88 | 294 | 4.0 | 11.0 | 0.00 | 0.00 | 0.00 | 32 | 1008.5 |
| 20260830201404 | 88 | 290 | 3.0 | 8.0 | 0.00 | 0.00 | 0.00 | 32 | 1008.4 |
| 20260830201225 | 88 | 293 | 3.0 | 8.0 | 0.00 | 0.00 | 0.00 | 32 | 1008.4 |
| 20260830201003 | 89 | 296 | 3.0 | 8.0 | 0.00 | 0.00 | 0.00 | 33 | 1008.5 |
| 20260830200824 | 88 | 302 | 3.0 | 8.0 | 0.00 | 0.00 | 0.00 | 33 | 1008.5 |
| 20260830200624 | 88 | 303 | 2.0 | 8.0 | 0.00 | 0.00 | 0.00 | 32 | 1008.4 |
| 20260830200403 | 88 | 299 | 3.0 | 8.0 | 0.00 | 0.00 | 0.00 | 33 | 1008.5 |
| 20260830200203 | 88 | 286 | 3.0 | 9.0 | 0.00 | 0.00 | 0.00 | 32 | 1008.5 |
| 20260830200024 | 88 | 288 | 3.0 | 9.0 | 0.00 | 0.00 | 0.00 | 33 | 1008.5 |
| 20260830195803 | 87 | 285 | 3.0 | 9.0 | 0.00 | 0.00 | 0.00 | 33 | 1008.5 |
| 20260830195603 | 87 | 270 | 3.0 | 9.0 | 0.00 | 0.00 | 0.00 | 34 | 1008.4 |
| 20260830195403 | 87 | 271 | 3.0 | 9.0 | 0.00 | 0.00 | 0.00 | 34 | 1008.5 |
| 20260830195203 | 87 | 284 | 3.0 | 8.0 | 0.00 | 0.00 | 0.00 | 34 | 1008.5 |
| 20260830195003 | 87 | 282 | 3.0 | 8.0 | 0.00 | 0.00 | 0.00 | 33 | 1008.5 |
| 20260830194803 | 87 | 286 | 3.0 | 8.0 | 0.00 | 0.00 | 0.00 | 32 | 1008.5 |
| 20260830194624 | 87 | 290 | 4.0 | 8.0 | 0.00 | 0.00 | 0.00 | 32 | 1008.5 |
| 20260830194403 | 87 | 293 | 3.0 | 8.0 | 0.00 | 0.00 | 0.00 | 33 | 1008.5 |
| 20260830194224 | 87 | 294 | 3.0 | 8.0 | 0.00 | 0.00 | 0.00 | 33 | 1008.5 |
| 20260830194003 | 86 | 291 | 3.0 | 9.0 | 0.00 | 0.00 | 0.00 | 32 | 1008.6 |
| 20260830193803 | 86 | 290 | 3.0 | 9.0 | 0.00 | 0.00 | 0.00 | 34 | 1008.6 |
| 20260830193603 | 86 | 290 | 3.0 | 9.0 | 0.00 | 0.00 | 0.00 | 34 | 1008.6 |
| 20260830193403 | 86 | 285 | 4.0 | 9.0 | 0.00 | 0.00 | 0.00 | 34 | 1008.7 |
| 20260830193203 | 86 | 281 | 3.0 | 9.0 | 0.00 | 0.00 | 0.00 | 34 | 1008.7 |
| 20260830193003 | 86 | 279 | 3.0 | 8.0 | 0.00 | 0.00 | 0.00 | 34 | 1008.7 |
| 20260830192824 | 86 | 274 | 3.0 | 8.0 | 0.00 | 0.00 | 0.00 | 33 | 1008.7 |
| 20260830192603 | 86 | 276 | 3.0 | 9.0 | 0.00 | 0.00 | 0.00 | 33 | 1008.7 |
| 20260830192403 | 86 | 290 | 3.0 | 9.0 | 0.00 | 0.00 | 0.00 | 34 | 1008.7 |
| 20260830192203 | 86 | 291 | 2.0 | 9.0 | 0.00 | 0.00 | 0.00 | 36 | 1008.7 |
| 20260830192024 | 86 | 290 | 2.0 | 9.0 | 0.00 | 0.00 | 0.00 | 34 | 1008.7 |
| 20260830191803 | 86 | 295 | 3.0 | 9.0 | 0.00 | 0.00 | 0.00 | 34 | 1008.8 |
| 20260830191603 | 86 | 279 | 3.0 | 9.0 | 0.00 | 0.00 | 0.00 | 35 | 1008.8 |
| 20260830191403 | 86 | 265 | 3.0 | 9.0 | 0.00 | 0.00 | 0.00 | 35 | 1008.7 |
| 20260830191203 | 86 | 258 | 4.0 | 9.0 | 0.00 | 0.00 | 0.00 | 35 | 1008.8 |
| 20260830191024 | 86 | 257 | 4.0 | 9.0 | 0.00 | 0.00 | 0.00 | 35 | 1008.8 |
| 20260830190803 | 86 | 242 | 3.0 | 9.0 | 0.00 | 0.00 | 0.00 | 35 | 1008.8 |
| 20260830190604 | 86 | 238 | 3.0 | 8.0 | 0.00 | 0.00 | 0.00 | 35 | 1008.8 |
| 20260830190424 | 86 | 245 | 2.0 | 7.0 | 0.00 | 0.00 | 0.00 | 35 | 1008.8 |
| 20260830190203 | 86 | 268 | 2.0 | 6.0 | 0.00 | 0.00 | 0.00 | 35 | 1008.9 |
| 20260830190003 | 86 | 285 | 2.0 | 6.0 | 0.00 | 0.00 | 0.00 | 36 | 1008.9 |
| 20260830185803 | 86 | 290 | 3.0 | 6.0 | 0.00 | 0.00 | 0.00 | 36 | 1008.9 |
| 20260830185603 | 86 | 292 | 3.0 | 7.0 | 0.00 | 0.00 | 0.00 | 38 | 1009.0 |
| 20260830185404 | 86 | 295 | 4.0 | 8.0 | 0.00 | 0.00 | 0.00 | 36 | 1009.0 |
| 20260830185204 | 85 | 293 | 3.0 | 8.0 | 0.00 | 0.00 | 0.00 | 37 | 1009.0 |
| 20260830185004 | 85 | 289 | 3.0 | 8.0 | 0.00 | 0.00 | 0.00 | 36 | 1009.0 |
| 20260830184803 | 85 | 283 | 3.0 | 8.0 | 0.00 | 0.00 | 0.00 | 37 | 1009.0 |
| 20260830184603 | 85 | 283 | 2.0 | 8.0 | 0.00 | 0.00 | 0.00 | 37 | 1009.0 |
| 20260830184403 | 84 | 285 | 2.0 | 7.0 | 0.00 | 0.00 | 0.00 | 36 | 1009.1 |
| 20260830184224 | 84 | 296 | 2.0 | 7.0 | 0.00 | 0.00 | 0.00 | 35 | 1009.1 |
| 20260830184003 | 84 | 297 | 2.0 | 7.0 | 0.00 | 0.00 | 0.00 | 35 | 1009.1 |
| 20260830183803 | 84 | 301 | 2.0 | 7.0 | 0.00 | 0.00 | 0.00 | 35 | 1009.1 |
| 20260830183603 | 84 | 299 | 2.0 | 7.0 | 0.00 | 0.00 | 0.00 | 36 | 1009.2 |
| 20260830183424 | 84 | 290 | 2.0 | 6.0 | 0.00 | 0.00 | 0.00 | 36 | 1009.1 |
| 20260830183203 | 84 | 259 | 1.0 | 5.0 | 0.00 | 0.00 | 0.00 | 35 | 1009.2 |
| 20260830183004 | 84 | 253 | 2.0 | 6.0 | 0.00 | 0.00 | 0.00 | 37 | 1009.1 |
| 20260830182824 | 84 | 254 | 2.0 | 6.0 | 0.00 | 0.00 | 0.00 | 36 | 1009.2 |
| 20260830182603 | 84 | 268 | 2.0 | 6.0 | 0.00 | 0.00 | 0.00 | 36 | 1009.2 |
| 20260830182403 | 84 | 274 | 2.0 | 6.0 | 0.00 | 0.00 | 0.00 | 36 | 1009.2 |
| 20260830182203 | 84 | 282 | 2.0 | 7.0 | 0.00 | 0.00 | 0.00 | 36 | 1009.2 |
| 20260830182024 | 84 | 285 | 2.0 | 7.0 | 0.00 | 0.00 | 0.00 | 37 | 1009.2 |
| 20260830181803 | 84 | 284 | 2.0 | 7.0 | 0.00 | 0.00 | 0.00 | 36 | 1009.1 |
| 20260830181603 | 84 | 285 | 2.0 | 7.0 | 0.00 | 0.00 | 0.00 | 38 | 1009.1 |
| 20260830181425 | 84 | 281 | 2.0 | 7.0 | 0.00 | 0.00 | 0.00 | 37 | 1009.1 |
| 20260830181203 | 84 | 283 | 3.0 | 7.0 | 0.00 | 0.00 | 0.00 | 37 | 1009.1 |
| 20260830181003 | 84 | 289 | 2.0 | 7.0 | 0.00 | 0.00 | 0.00 | 37 | 1009.1 |
| 20260830180804 | 84 | 288 | 3.0 | 7.0 | 0.00 | 0.00 | 0.00 | 37 | 1009.1 |
| 20260830180624 | 83 | 283 | 2.0 | 7.0 | 0.00 | 0.00 | 0.00 | 38 | 1009.1 |
| 20260830180404 | 83 | 287 | 2.0 | 7.0 | 0.00 | 0.00 | 0.00 | 39 | 1009.1 |
| 20260830180203 | 83 | 292 | 3.0 | 7.0 | 0.00 | 0.00 | 0.00 | 39 | 1009.0 |
| 20260830180003 | 82 | 296 | 3.0 | 6.0 | 0.00 | 0.00 | 0.00 | 39 | 1009.0 |
| 20260830175824 | 82 | 297 | 3.0 | 6.0 | 0.00 | 0.00 | 0.00 | 38 | 1009.0 |
| 20260830175604 | 82 | 303 | 2.0 | 6.0 | 0.00 | 0.00 | 0.00 | 39 | 1009.1 |
| 20260830175403 | 82 | 301 | 2.0 | 6.0 | 0.00 | 0.00 | 0.00 | 39 | 1009.0 |
| 20260830175203 | 82 | 297 | 2.0 | 6.0 | 0.00 | 0.00 | 0.00 | 39 | 1009.1 |
| 20260830175024 | 82 | 289 | 2.0 | 6.0 | 0.00 | 0.00 | 0.00 | 40 | 1009.1 |
| 20260830174803 | 82 | 276 | 2.0 | 6.0 | 0.00 | 0.00 | 0.00 | 39 | 1009.1 |
| 20260830174603 | 82 | 275 | 2.0 | 6.0 | 0.00 | 0.00 | 0.00 | 39 | 1009.1 |
| 20260830174426 | 82 | 274 | 2.0 | 6.0 | 0.00 | 0.00 | 0.00 | 38 | 1009.1 |
| 20260830174203 | 82 | 278 | 2.0 | 6.0 | 0.00 | 0.00 | 0.00 | 39 | 1009.1 |
| 20260830174003 | 81 | 289 | 2.0 | 6.0 | 0.00 | 0.00 | 0.00 | 39 | 1009.1 |
| 20260830173803 | 81 | 294 | 1.0 | 6.0 | 0.00 | 0.00 | 0.00 | 40 | 1009.0 |
| 20260830173603 | 81 | 297 | 2.0 | 6.0 | 0.00 | 0.00 | 0.00 | 39 | 1009.1 |
| 20260830173403 | 81 | 299 | 2.0 | 6.0 | 0.00 | 0.00 | 0.00 | 40 | 1009.1 |
| 20260830173203 | 81 | 291 | 2.0 | 5.0 | 0.00 | 0.00 | 0.00 | 40 | 1009.1 |
| 20260830173003 | 81 | 285 | 2.0 | 5.0 | 0.00 | 0.00 | 0.00 | 39 | 1009.1 |
| 20260830172824 | 81 | 282 | 2.0 | 5.0 | 0.00 | 0.00 | 0.00 | 40 | 1009.1 |
| 20260830172603 | 81 | 274 | 2.0 | 5.0 | 0.00 | 0.00 | 0.00 | 39 | 1009.0 |
| 20260830172403 | 81 | 262 | 2.0 | 5.0 | 0.00 | 0.00 | 0.00 | 40 | 1009.1 |
| 20260830172204 | 81 | 267 | 2.0 | 5.0 | 0.00 | 0.00 | 0.00 | 40 | 1009.1 |
| 20260830172003 | 81 | 261 | 2.0 | 5.0 | 0.00 | 0.00 | 0.00 | 40 | 1009.0 |
| 20260830171804 | 80 | 274 | 2.0 | 6.0 | 0.00 | 0.00 | 0.00 | 41 | 1009.1 |
| 20260830171603 | 80 | 286 | 3.0 | 7.0 | 0.00 | 0.00 | 0.00 | 41 | 1009.0 |
| 20260830171403 | 80 | 295 | 3.0 | 7.0 | 0.00 | 0.00 | 0.00 | 42 | 1009.0 |
| 20260830171203 | 80 | 298 | 3.0 | 7.0 | 0.00 | 0.00 | 0.00 | 42 | 1009.0 |
| 20260830171004 | 80 | 302 | 3.0 | 7.0 | 0.00 | 0.00 | 0.00 | 42 | 1009.1 |
| 20260830170803 | 80 | 304 | 3.0 | 7.0 | 0.00 | 0.00 | 0.00 | 42 | 1009.1 |
| 20260830170604 | 80 | 305 | 2.0 | 7.0 | 0.00 | 0.00 | 0.00 | 42 | 1009.1 |
| 20260830170425 | 80 | 302 | 3.0 | 7.0 | 0.00 | 0.00 | 0.00 | 42 | 1009.0 |
| 20260830170203 | 80 | 301 | 2.0 | 6.0 | 0.00 | 0.00 | 0.00 | 41 | 1009.1 |
| 20260830170003 | 80 | 295 | 1.0 | 5.0 | 0.00 | 0.00 | 0.00 | 42 | 1009.1 |
| 20260830165824 | 80 | 291 | 2.0 | 5.0 | 0.00 | 0.00 | 0.00 | 41 | 1009.1 |
| 20260830165624 | 80 | 289 | 1.0 | 5.0 | 0.00 | 0.00 | 0.00 | 41 | 1009.1 |
| 20260830165403 | 80 | 289 | 1.0 | 5.0 | 0.00 | 0.00 | 0.00 | 41 | 1009.0 |
| 20260830165203 | 79 | 289 | 1.0 | 5.0 | 0.00 | 0.00 | 0.00 | 42 | 1009.0 |
| 20260830165003 | 79 | 299 | 1.0 | 5.0 | 0.00 | 0.00 | 0.00 | 42 | 1008.9 |
| 20260830164803 | 79 | 296 | 1.0 | 5.0 | 0.00 | 0.00 | 0.00 | 43 | 1008.9 |
| 20260830164603 | 79 | 295 | 1.0 | 5.0 | 0.00 | 0.00 | 0.00 | 42 | 1008.9 |
| 20260830164403 | 79 | 294 | 1.0 | 5.0 | 0.00 | 0.00 | 0.00 | 42 | 1008.9 |
| 20260830164203 | 79 | 290 | 1.0 | 5.0 | 0.00 | 0.00 | 0.00 | 43 | 1008.9 |
| 20260830164003 | 79 | 283 | 1.0 | 5.0 | 0.00 | 0.00 | 0.00 | 42 | 1008.9 |
| 20260830163803 | 79 | 284 | 0.0 | 3.0 | 0.00 | 0.00 | 0.00 | 43 | 1008.9 |
| 20260830163603 | 79 | 291 | 1.0 | 5.0 | 0.00 | 0.00 | 0.00 | 43 | 1008.9 |
| 20260830163424 | 79 | 292 | 1.0 | 5.0 | 0.00 | 0.00 | 0.00 | 44 | 1008.9 |
| 20260830163204 | 79 | 296 | 1.0 | 5.0 | 0.00 | 0.00 | 0.00 | 44 | 1008.9 |
| 20260830163024 | 78 | 300 | 1.0 | 5.0 | 0.00 | 0.00 | 0.00 | 44 | 1008.9 |
| 20260830162803 | 78 | 301 | 1.0 | 5.0 | 0.00 | 0.00 | 0.00 | 45 | 1008.9 |
| 20260830162603 | 78 | 294 | 1.0 | 4.0 | 0.00 | 0.00 | 0.00 | 45 | 1008.9 |
| 20260830162403 | 78 | 293 | 1.0 | 4.0 | 0.00 | 0.00 | 0.00 | 45 | 1008.9 |
| 20260830162203 | 78 | 292 | 2.0 | 4.0 | 0.00 | 0.00 | 0.00 | 45 | 1008.9 |
| 20260830162003 | 78 | 290 | 2.0 | 4.0 | 0.00 | 0.00 | 0.00 | 45 | 1008.9 |
| 20260830161803 | 78 | 288 | 1.0 | 4.0 | 0.00 | 0.00 | 0.00 | 45 | 1008.9 |
| 20260830161603 | 79 | 281 | 1.0 | 4.0 | 0.00 | 0.00 | 0.00 | 44 | 1009.0 |
| 20260830161403 | 79 | 280 | 1.0 | 4.0 | 0.00 | 0.00 | 0.00 | 43 | 1008.9 |
| 20260830161204 | 79 | 268 | 1.0 | 4.0 | 0.00 | 0.00 | 0.00 | 43 | 1008.9 |
| 20260830161004 | 79 | 249 | 0.0 | 4.0 | 0.00 | 0.00 | 0.00 | 43 | 1008.9 |
| 20260830160804 | 79 | 249 | 0.0 | 4.0 | 0.00 | 0.00 | 0.00 | 42 | 1008.9 |
| 20260830160603 | 79 | 260 | 0.0 | 4.0 | 0.00 | 0.00 | 0.00 | 42 | 1008.9 |
| 20260830160404 | 79 | 173 | 0.0 | 1.0 | 0.00 | 0.00 | 0.00 | 42 | 1008.9 |
| 20260830160203 | 79 | 242 | 0.0 | 1.0 | 0.00 | 0.00 | 0.00 | 42 | 1008.9 |
| 20260830160025 | 79 | 260 | 0.0 | 1.0 | 0.00 | 0.00 | 0.00 | 43 | 1009.0 |
| 20260830155825 | 78 | 260 | 0.0 | 1.0 | 0.00 | 0.00 | 0.00 | 43 | 1009.0 |
| 20260830155603 | 78 | 260 | 0.0 | 1.0 | 0.00 | 0.00 | 0.00 | 44 | 1009.0 |
| 20260830155403 | 78 | 260 | 0.0 | 1.0 | 0.00 | 0.00 | 0.00 | 45 | 1009.0 |
| 20260830155203 | 78 | 0 | 0.0 | 0.0 | 0.00 | 0.00 | 0.00 | 47 | 1009.0 |
| 20260830155003 | 78 | 0 | 0.0 | 0.0 | 0.00 | 0.00 | 0.00 | 46 | 1009.0 |
| 20260830154824 | 78 | 0 | 0.0 | 0.0 | 0.00 | 0.00 | 0.00 | 46 | 1009.0 |
| 20260830154603 | 77 | 0 | 0.0 | 0.0 | 0.00 | 0.00 | 0.00 | 47 | 1009.0 |
| 20260830154403 | 77 | 0 | 0.0 | 0.0 | 0.00 | 0.00 | 0.00 | 46 | 1009.0 |
| 20260830154203 | 77 | 0 | 0.0 | 0.0 | 0.00 | 0.00 | 0.00 | 47 | 1009.0 |
| 20260830154003 | 77 | 0 | 0.0 | 0.0 | 0.00 | 0.00 | 0.00 | 46 | 1009.0 |
| 20260830153824 | 77 | 0 | 0.0 | 0.0 | 0.00 | 0.00 | 0.00 | 46 | 1009.0 |
| 20260830153624 | 78 | 0 | 0.0 | 0.0 | 0.00 | 0.00 | 0.00 | 46 | 1009.0 |
| 20260830153403 | 78 | 0 | 0.0 | 0.0 | 0.00 | 0.00 | 0.00 | 45 | 1009.0 |
| 20260830153203 | 78 | 0 | 0.0 | 0.0 | 0.00 | 0.00 | 0.00 | 46 | 1009.0 |
| 20260830153004 | 79 | 0 | 0.0 | 0.0 | 0.00 | 0.00 | 0.00 | 45 | 1008.9 |
| 20260830152803 | 79 | 0 | 0.0 | 0.0 | 0.00 | 0.00 | 0.00 | 45 | 1009.0 |
| 20260830152603 | 79 | 0 | 0.0 | 0.0 | 0.00 | 0.00 | 0.00 | 46 | 1009.0 |
| 20260830152403 | 78 | 0 | 0.0 | 0.0 | 0.00 | 0.00 | 0.00 | 46 | 1009.0 |
| 20260830152203 | 78 | 0 | 0.0 | 0.0 | 0.00 | 0.00 | 0.00 | 47 | 1009.0 |
| 20260830152024 | 78 | 0 | 0.0 | 0.0 | 0.00 | 0.00 | 0.00 | 48 | 1009.0 |
| 20260830151803 | 77 | 0 | 0.0 | 0.0 | 0.00 | 0.00 | 0.00 | 48 | 1009.0 |
| 20260830151624 | 77 | 0 | 0.0 | 0.0 | 0.00 | 0.00 | 0.00 | 49 | 1009.0 |
| 20260830151424 | 76 | 0 | 0.0 | 0.0 | 0.00 | 0.00 | 0.00 | 50 | 1009.0 |
| 20260830151203 | 76 | 0 | 0.0 | 0.0 | 0.00 | 0.00 | 0.00 | 50 | 1009.0 |
| 20260830151003 | 75 | 0 | 0.0 | 0.0 | 0.00 | 0.00 | 0.00 | 52 | 1009.0 |
| 20260830150803 | 75 | 0 | 0.0 | 0.0 | 0.00 | 0.00 | 0.00 | 51 | 1009.0 |
| 20260830150625 | 74 | 0 | 0.0 | 0.0 | 0.00 | 0.00 | 0.00 | 53 | 1009.0 |
| 20260830150403 | 74 | 0 | 0.0 | 0.0 | 0.00 | 0.00 | 0.00 | 53 | 1009.0 |
| 20260830150224 | 74 | 0 | 0.0 | 0.0 | 0.00 | 0.00 | 0.00 | 53 | 1009.0 |
| 20260830150003 | 74 | 0 | 0.0 | 0.0 | 0.00 | 0.00 | 0.00 | 53 | 1009.0 |
| 20260830145803 | 75 | 0 | 0.0 | 0.0 | 0.00 | 0.00 | 0.00 | 54 | 1009.0 |
| 20260830145604 | 75 | 0 | 0.0 | 0.0 | 0.00 | 0.00 | 0.00 | 54 | 1009.1 |
| 20260830145424 | 75 | 0 | 0.0 | 0.0 | 0.00 | 0.00 | 0.00 | 55 | 1009.1 |
| 20260830145203 | 75 | 0 | 0.0 | 0.0 | 0.00 | 0.00 | 0.00 | 54 | 1009.1 |
| 20260830145003 | 75 | 0 | 0.0 | 0.0 | 0.00 | 0.00 | 0.00 | 53 | 1009.1 |
| 20260830144803 | 74 | 0 | 0.0 | 0.0 | 0.00 | 0.00 | 0.00 | 54 | 1009.0 |
| 20260830144603 | 74 | 0 | 0.0 | 0.0 | 0.00 | 0.00 | 0.00 | 54 | 1009.0 |
| 20260830144403 | 74 | 0 | 0.0 | 0.0 | 0.00 | 0.00 | 0.00 | 55 | 1009.0 |
| 20260830144203 | 74 | 0 | 0.0 | 0.0 | 0.00 | 0.00 | 0.00 | 55 | 1009.1 |
| 20260830144004 | 73 | 0 | 0.0 | 0.0 | 0.00 | 0.00 | 0.00 | 55 | 1009.1 |
| 20260830143824 | 73 | 0 | 0.0 | 0.0 | 0.00 | 0.00 | 0.00 | 54 | 1009.1 |
| 20260830143603 | 73 | 0 | 0.0 | 0.0 | 0.00 | 0.00 | 0.00 | 54 | 1009.1 |
| 20260830143403 | 73 | 0 | 0.0 | 0.0 | 0.00 | 0.00 | 0.00 | 54 | 1009.1 |
| 20260830143203 | 73 | 88 | 0.0 | 1.0 | 0.00 | 0.00 | 0.00 | 54 | 1009.1 |
| 20260830143003 | 73 | 88 | 0.0 | 1.0 | 0.00 | 0.00 | 0.00 | 55 | 1009.1 |
| 20260830142803 | 72 | 88 | 0.0 | 1.0 | 0.00 | 0.00 | 0.00 | 56 | 1009.1 |
| 20260830142603 | 72 | 88 | 0.0 | 1.0 | 0.00 | 0.00 | 0.00 | 56 | 1009.1 |
| 20260830142403 | 72 | 88 | 1.0 | 2.0 | 0.00 | 0.00 | 0.00 | 57 | 1009.0 |
| 20260830142203 | 71 | 88 | 1.0 | 2.0 | 0.00 | 0.00 | 0.00 | 57 | 1009.0 |
| 20260830142003 | 71 | 88 | 1.0 | 2.0 | 0.00 | 0.00 | 0.00 | 58 | 1008.9 |
| 20260830141825 | 70 | 87 | 1.0 | 2.0 | 0.00 | 0.00 | 0.00 | 58 | 1008.9 |
| 20260830141603 | 70 | 87 | 1.0 | 2.0 | 0.00 | 0.00 | 0.00 | 59 | 1008.9 |
| 20260830141424 | 70 | 85 | 1.0 | 2.0 | 0.00 | 0.00 | 0.00 | 59 | 1008.9 |
| 20260830141225 | 70 | 86 | 1.0 | 2.0 | 0.00 | 0.00 | 0.00 | 59 | 1008.9 |
| 20260830141003 | 69 | 85 | 1.0 | 2.0 | 0.00 | 0.00 | 0.00 | 60 | 1008.9 |
| 20260830140803 | 69 | 86 | 1.0 | 2.0 | 0.00 | 0.00 | 0.00 | 60 | 1008.9 |
| 20260830140603 | 69 | 86 | 1.0 | 2.0 | 0.00 | 0.00 | 0.00 | 60 | 1008.9 |
| 20260830140425 | 69 | 88 | 1.0 | 2.0 | 0.00 | 0.00 | 0.00 | 60 | 1008.9 |
| 20260830140224 | 69 | 86 | 0.0 | 2.0 | 0.00 | 0.00 | 0.00 | 60 | 1008.9 |
| 20260830140004 | 69 | 91 | 0.0 | 2.0 | 0.00 | 0.00 | 0.00 | 60 | 1008.8 |
| 20260830135824 | 69 | 0 | 0.0 | 0.0 | 0.00 | 0.00 | 0.00 | 60 | 1008.8 |
| 20260830135603 | 69 | 0 | 0.0 | 0.0 | 0.00 | 0.00 | 0.00 | 60 | 1008.9 |
| 20260830135403 | 69 | 0 | 0.0 | 0.0 | 0.00 | 0.00 | 0.00 | 60 | 1008.8 |
| 20260830135203 | 69 | 0 | 0.0 | 0.0 | 0.00 | 0.00 | 0.00 | 60 | 1008.8 |
| 20260830135003 | 69 | 0 | 0.0 | 0.0 | 0.00 | 0.00 | 0.00 | 60 | 1008.8 |
| 20260830134804 | 69 | 0 | 0.0 | 0.0 | 0.00 | 0.00 | 0.00 | 60 | 1008.7 |
| 20260830134603 | 69 | 0 | 0.0 | 0.0 | 0.00 | 0.00 | 0.00 | 60 | 1008.8 |
| 20260830134403 | 69 | 0 | 0.0 | 0.0 | 0.00 | 0.00 | 0.00 | 60 | 1008.8 |
| 20260830134203 | 69 | 97 | 0.0 | 1.0 | 0.00 | 0.00 | 0.00 | 60 | 1008.7 |
| 20260830134003 | 69 | 90 | 0.0 | 2.0 | 0.00 | 0.00 | 0.00 | 59 | 1008.6 |
| 20260830133824 | 69 | 90 | 0.0 | 2.0 | 0.00 | 0.00 | 0.00 | 60 | 1008.7 |
| 20260830133604 | 69 | 90 | 0.0 | 2.0 | 0.00 | 0.00 | 0.00 | 60 | 1008.6 |
| 20260830133403 | 69 | 91 | 1.0 | 2.0 | 0.00 | 0.00 | 0.00 | 60 | 1008.5 |
| 20260830133203 | 69 | 88 | 1.0 | 2.0 | 0.00 | 0.00 | 0.00 | 60 | 1008.5 |
| 20260830133003 | 69 | 88 | 1.0 | 2.0 | 0.00 | 0.00 | 0.00 | 60 | 1008.4 |
| 20260830132803 | 69 | 87 | 1.0 | 3.0 | 0.00 | 0.00 | 0.00 | 60 | 1008.5 |
| 20260830132604 | 69 | 87 | 1.0 | 3.0 | 0.00 | 0.00 | 0.00 | 60 | 1008.4 |
| 20260830132403 | 68 | 87 | 1.0 | 3.0 | 0.00 | 0.00 | 0.00 | 60 | 1008.4 |
| 20260830132203 | 68 | 87 | 2.0 | 3.0 | 0.00 | 0.00 | 0.00 | 60 | 1008.4 |
| 20260830132004 | 68 | 86 | 2.0 | 4.0 | 0.00 | 0.00 | 0.00 | 60 | 1008.3 |
| 20260830131824 | 68 | 86 | 2.0 | 4.0 | 0.00 | 0.00 | 0.00 | 60 | 1008.3 |
| 20260830131603 | 68 | 85 | 2.0 | 4.0 | 0.00 | 0.00 | 0.00 | 60 | 1008.3 |
| 20260830131403 | 68 | 84 | 1.0 | 4.0 | 0.00 | 0.00 | 0.00 | 60 | 1008.3 |
| 20260830131204 | 68 | 84 | 1.0 | 4.0 | 0.00 | 0.00 | 0.00 | 60 | 1008.3 |
| 20260830131003 | 68 | 84 | 0.0 | 3.0 | 0.00 | 0.00 | 0.00 | 60 | 1008.3 |
| 20260830130803 | 68 | 86 | 0.0 | 2.0 | 0.00 | 0.00 | 0.00 | 59 | 1008.3 |
| 20260830130603 | 69 | 0 | 0.0 | 0.0 | 0.00 | 0.00 | 0.00 | 59 | 1008.3 |
| 20260830130403 | 69 | 0 | 0.0 | 0.0 | 0.00 | 0.00 | 0.00 | 60 | 1008.3 |
| 20260830130204 | 69 | 0 | 0.0 | 0.0 | 0.00 | 0.00 | 0.00 | 60 | 1008.2 |
| 20260830130024 | 69 | 0 | 0.0 | 0.0 | 0.00 | 0.00 | 0.00 | 60 | 1008.2 |
| 20260830125824 | 69 | 0 | 0.0 | 0.0 | 0.00 | 0.00 | 0.00 | 59 | 1008.2 |
| 20260830125603 | 69 | 0 | 0.0 | 0.0 | 0.00 | 0.00 | 0.00 | 59 | 1008.2 |
| 20260830125403 | 69 | 0 | 0.0 | 0.0 | 0.00 | 0.00 | 0.00 | 59 | 1008.1 |
| 20260830125204 | 69 | 0 | 0.0 | 0.0 | 0.00 | 0.00 | 0.00 | 59 | 1008.1 |
| 20260830125024 | 69 | 0 | 0.0 | 0.0 | 0.00 | 0.00 | 0.00 | 59 | 1008.0 |
| 20260830124803 | 69 | 0 | 0.0 | 0.0 | 0.00 | 0.00 | 0.00 | 59 | 1008.0 |
| 20260830124603 | 69 | 0 | 0.0 | 0.0 | 0.00 | 0.00 | 0.00 | 59 | 1008.0 |
| 20260830124403 | 69 | 0 | 0.0 | 0.0 | 0.00 | 0.00 | 0.00 | 59 | 1008.0 |
| 20260830124203 | 69 | 0 | 0.0 | 0.0 | 0.00 | 0.00 | 0.00 | 59 | 1008.0 |
| 20260830124025 | 69 | 0 | 0.0 | 0.0 | 0.00 | 0.00 | 0.00 | 59 | 1007.9 |
| 20260830123803 | 69 | 0 | 0.0 | 0.0 | 0.00 | 0.00 | 0.00 | 59 | 1008.0 |
| 20260830123624 | 69 | 0 | 0.0 | 0.0 | 0.00 | 0.00 | 0.00 | 59 | 1008.0 |
| 20260830123403 | 69 | 0 | 0.0 | 0.0 | 0.00 | 0.00 | 0.00 | 59 | 1007.9 |
| 20260830123203 | 69 | 0 | 0.0 | 0.0 | 0.00 | 0.00 | 0.00 | 59 | 1007.9 |
| 20260830123003 | 69 | 0 | 0.0 | 0.0 | 0.00 | 0.00 | 0.00 | 59 | 1007.9 |
| 20260830122803 | 69 | 0 | 0.0 | 0.0 | 0.00 | 0.00 | 0.00 | 59 | 1007.9 |
| 20260830122624 | 69 | 0 | 0.0 | 0.0 | 0.00 | 0.00 | 0.00 | 59 | 1007.9 |
| 20260830122424 | 69 | 0 | 0.0 | 0.0 | 0.00 | 0.00 | 0.00 | 59 | 1007.9 |
| 20260830122203 | 69 | 0 | 0.0 | 0.0 | 0.00 | 0.00 | 0.00 | 59 | 1007.9 |
| 20260830122003 | 69 | 0 | 0.0 | 0.0 | 0.00 | 0.00 | 0.00 | 59 | 1007.9 |
| 20260830121804 | 69 | 0 | 0.0 | 0.0 | 0.00 | 0.00 | 0.00 | 59 | 1007.9 |
| 20260830121603 | 69 | 0 | 0.0 | 0.0 | 0.00 | 0.00 | 0.00 | 60 | 1007.9 |
| 20260830121404 | 69 | 0 | 0.0 | 0.0 | 0.00 | 0.00 | 0.00 | 60 | 1007.9 |
| 20260830121224 | 69 | 0 | 0.0 | 0.0 | 0.00 | 0.00 | 0.00 | 60 | 1007.9 |
| 20260830121024 | 69 | 0 | 0.0 | 0.0 | 0.00 | 0.00 | 0.00 | 60 | 1007.9 |
| 20260830120803 | 69 | 0 | 0.0 | 0.0 | 0.00 | 0.00 | 0.00 | 60 | 1007.9 |
| 20260830120603 | 69 | 0 | 0.0 | 0.0 | 0.00 | 0.00 | 0.00 | 60 | 1007.9 |
| 20260830120403 | 70 | 0 | 0.0 | 0.0 | 0.00 | 0.00 | 0.00 | 60 | 1007.9 |
| 20260830120203 | 70 | 102 | 0.0 | 1.0 | 0.00 | 0.00 | 0.00 | 59 | 1007.9 |
| 20260830120003 | 69 | 102 | 0.0 | 1.0 | 0.00 | 0.00 | 0.00 | 59 | 1007.9 |
| 20260830115803 | 70 | 102 | 0.0 | 1.0 | 0.00 | 0.00 | 0.00 | 59 | 1007.9 |
| 20260830115603 | 70 | 102 | 0.0 | 1.0 | 0.00 | 0.00 | 0.00 | 59 | 1007.9 |
| 20260830115403 | 70 | 102 | 0.0 | 1.0 | 0.00 | 0.00 | 0.00 | 59 | 1007.9 |
| 20260830115203 | 70 | 0 | 0.0 | 0.0 | 0.00 | 0.00 | 0.00 | 59 | 1007.8 |
| 20260830115024 | 70 | 0 | 0.0 | 0.0 | 0.00 | 0.00 | 0.00 | 59 | 1007.8 |
| 20260830114803 | 69 | 0 | 0.0 | 0.0 | 0.00 | 0.00 | 0.00 | 59 | 1007.9 |
| 20260830114603 | 69 | 0 | 0.0 | 0.0 | 0.00 | 0.00 | 0.00 | 59 | 1007.9 |
| 20260830114403 | 69 | 90 | 0.0 | 2.0 | 0.00 | 0.00 | 0.00 | 58 | 1007.9 |
| 20260830114203 | 70 | 90 | 0.0 | 2.0 | 0.00 | 0.00 | 0.00 | 58 | 1007.9 |
| 20260830114003 | 70 | 90 | 0.0 | 2.0 | 0.00 | 0.00 | 0.00 | 58 | 1007.8 |
| 20260830113804 | 70 | 90 | 0.0 | 2.0 | 0.00 | 0.00 | 0.00 | 58 | 1007.8 |
| 20260830113603 | 70 | 90 | 0.0 | 2.0 | 0.00 | 0.00 | 0.00 | 58 | 1007.8 |
| 20260830113403 | 70 | 88 | 0.0 | 2.0 | 0.00 | 0.00 | 0.00 | 58 | 1007.8 |
| 20260830113225 | 70 | 88 | 0.0 | 2.0 | 0.00 | 0.00 | 0.00 | 58 | 1007.8 |
| 20260830113003 | 70 | 88 | 0.0 | 2.0 | 0.00 | 0.00 | 0.00 | 58 | 1007.8 |
| 20260830112824 | 70 | 88 | 0.0 | 2.0 | 0.00 | 0.00 | 0.00 | 58 | 1007.8 |
| 20260830112603 | 70 | 88 | 0.0 | 2.0 | 0.00 | 0.00 | 0.00 | 57 | 1007.8 |
| 20260830112403 | 70 | 89 | 0.0 | 2.0 | 0.00 | 0.00 | 0.00 | 57 | 1007.8 |
| 20260830112203 | 71 | 105 | 0.0 | 3.0 | 0.00 | 0.00 | 0.00 | 57 | 1007.8 |
| 20260830112024 | 71 | 112 | 1.0 | 4.0 | 0.00 | 0.00 | 0.00 | 56 | 1007.8 |
| 20260830111803 | 71 | 114 | 1.0 | 4.0 | 0.00 | 0.00 | 0.00 | 56 | 1007.8 |
| 20260830111603 | 71 | 114 | 1.0 | 4.0 | 0.00 | 0.00 | 0.00 | 56 | 1007.8 |
| 20260830111403 | 71 | 117 | 1.0 | 4.0 | 0.00 | 0.00 | 0.00 | 57 | 1007.8 |
| 20260830111204 | 71 | 120 | 1.0 | 4.0 | 0.00 | 0.00 | 0.00 | 57 | 1007.8 |
| 20260830111003 | 70 | 120 | 0.0 | 3.0 | 0.00 | 0.00 | 0.00 | 58 | 1007.7 |
| 20260830110803 | 70 | 0 | 0.0 | 0.0 | 0.00 | 0.00 | 0.00 | 58 | 1007.6 |
| 20260830110604 | 70 | 0 | 0.0 | 0.0 | 0.00 | 0.00 | 0.00 | 58 | 1007.7 |
| 20260830110403 | 70 | 103 | 0.0 | 1.0 | 0.00 | 0.00 | 0.00 | 57 | 1007.6 |
| 20260830110203 | 70 | 103 | 0.0 | 1.0 | 0.00 | 0.00 | 0.00 | 57 | 1007.5 |
| 20260830110005 | 70 | 103 | 0.0 | 1.0 | 0.00 | 0.00 | 0.00 | 57 | 1007.5 |
| 20260830105803 | 70 | 103 | 0.0 | 1.0 | 0.00 | 0.00 | 0.00 | 58 | 1007.5 |
| 20260830105624 | 70 | 103 | 0.0 | 1.0 | 0.00 | 0.00 | 0.00 | 58 | 1007.5 |
| 20260830105403 | 70 | 0 | 0.0 | 0.0 | 0.00 | 0.00 | 0.00 | 57 | 1007.5 |
| 20260830105203 | 70 | 0 | 0.0 | 0.0 | 0.00 | 0.00 | 0.00 | 56 | 1007.5 |
| 20260830105024 | 70 | 0 | 0.0 | 0.0 | 0.00 | 0.00 | 0.00 | 56 | 1007.5 |
| 20260830104803 | 70 | 104 | 0.0 | 1.0 | 0.00 | 0.00 | 0.00 | 55 | 1007.5 |
| 20260830104603 | 71 | 105 | 0.0 | 1.0 | 0.00 | 0.00 | 0.00 | 54 | 1007.4 |
| 20260830104403 | 71 | 105 | 0.0 | 1.0 | 0.00 | 0.00 | 0.00 | 55 | 1007.5 |
| 20260830104203 | 71 | 105 | 0.0 | 1.0 | 0.00 | 0.00 | 0.00 | 56 | 1007.5 |
| 20260830104003 | 71 | 105 | 0.0 | 1.0 | 0.00 | 0.00 | 0.00 | 57 | 1007.5 |
| 20260830103803 | 71 | 105 | 0.0 | 1.0 | 0.00 | 0.00 | 0.00 | 57 | 1007.4 |
| 20260830103603 | 71 | 0 | 0.0 | 0.0 | 0.00 | 0.00 | 0.00 | 58 | 1007.3 |
| 20260830103403 | 71 | 0 | 0.0 | 0.0 | 0.00 | 0.00 | 0.00 | 58 | 1007.5 |
| 20260830103203 | 71 | 0 | 0.0 | 0.0 | 0.00 | 0.00 | 0.00 | 57 | 1007.3 |
| 20260830103024 | 71 | 0 | 0.0 | 0.0 | 0.00 | 0.00 | 0.00 | 57 | 1007.4 |
| 20260830102804 | 71 | 0 | 0.0 | 0.0 | 0.00 | 0.00 | 0.00 | 58 | 1007.3 |
| 20260830102624 | 71 | 0 | 0.0 | 0.0 | 0.00 | 0.00 | 0.00 | 57 | 1007.4 |
| 20260830102403 | 71 | 104 | 0.0 | 1.0 | 0.00 | 0.00 | 0.00 | 58 | 1007.3 |
| 20260830102203 | 71 | 104 | 0.0 | 1.0 | 0.00 | 0.00 | 0.00 | 57 | 1007.3 |
| 20260830102003 | 71 | 104 | 0.0 | 1.0 | 0.00 | 0.00 | 0.00 | 57 | 1007.3 |
| 20260830101803 | 71 | 104 | 0.0 | 1.0 | 0.00 | 0.00 | 0.00 | 58 | 1007.4 |
| 20260830101624 | 71 | 97 | 0.0 | 1.0 | 0.00 | 0.00 | 0.00 | 58 | 1007.4 |
| 20260830101403 | 71 | 89 | 0.0 | 1.0 | 0.00 | 0.00 | 0.00 | 59 | 1007.3 |
| 20260830101203 | 71 | 92 | 0.0 | 1.0 | 0.00 | 0.00 | 0.00 | 57 | 1007.3 |
| 20260830101024 | 71 | 92 | 0.0 | 1.0 | 0.00 | 0.00 | 0.00 | 56 | 1007.3 |
| 20260830100803 | 71 | 92 | 0.0 | 1.0 | 0.00 | 0.00 | 0.00 | 57 | 1007.4 |
| 20260830100604 | 71 | 92 | 0.0 | 1.0 | 0.00 | 0.00 | 0.00 | 57 | 1007.4 |
| 20260830100403 | 71 | 92 | 0.0 | 1.0 | 0.00 | 0.00 | 0.00 | 57 | 1007.3 |
| 20260830100203 | 71 | 0 | 0.0 | 0.0 | 0.00 | 0.00 | 0.00 | 57 | 1007.3 |
| 20260830100003 | 71 | 0 | 0.0 | 0.0 | 0.00 | 0.00 | 0.00 | 56 | 1007.3 |
| 20260830095824 | 71 | 0 | 0.0 | 0.0 | 0.00 | 0.00 | 0.00 | 56 | 1007.3 |
| 20260830095624 | 71 | 0 | 0.0 | 0.0 | 0.00 | 0.00 | 0.00 | 57 | 1007.4 |
| 20260830095404 | 71 | 0 | 0.0 | 0.0 | 0.00 | 0.00 | 0.00 | 57 | 1007.3 |
| 20260830095203 | 71 | 0 | 0.0 | 0.0 | 0.00 | 0.00 | 0.00 | 58 | 1007.3 |
| 20260830095003 | 71 | 82 | 0.0 | 2.0 | 0.00 | 0.00 | 0.00 | 56 | 1007.3 |
| 20260830094803 | 71 | 82 | 0.0 | 2.0 | 0.00 | 0.00 | 0.00 | 54 | 1007.3 |
| 20260830094603 | 71 | 83 | 0.0 | 2.0 | 0.00 | 0.00 | 0.00 | 54 | 1007.3 |
| 20260830094403 | 71 | 84 | 1.0 | 2.0 | 0.00 | 0.00 | 0.00 | 54 | 1007.3 |
| 20260830094224 | 71 | 84 | 1.0 | 2.0 | 0.00 | 0.00 | 0.00 | 55 | 1007.3 |
| 20260830094003 | 71 | 86 | 1.0 | 2.0 | 0.00 | 0.00 | 0.00 | 55 | 1007.3 |
| 20260830093803 | 71 | 87 | 1.0 | 3.0 | 0.00 | 0.00 | 0.00 | 55 | 1007.3 |
| 20260830093603 | 71 | 85 | 1.0 | 3.0 | 0.00 | 0.00 | 0.00 | 55 | 1007.3 |
| 20260830093403 | 71 | 85 | 1.0 | 3.0 | 0.00 | 0.00 | 0.00 | 55 | 1007.4 |
| 20260830093203 | 71 | 85 | 1.0 | 3.0 | 0.00 | 0.00 | 0.00 | 55 | 1007.4 |
| 20260830093004 | 71 | 85 | 1.0 | 3.0 | 0.00 | 0.00 | 0.00 | 54 | 1007.4 |
| 20260830092804 | 71 | 86 | 1.0 | 3.0 | 0.00 | 0.00 | 0.00 | 54 | 1007.5 |
| 20260830092603 | 71 | 88 | 0.0 | 2.0 | 0.00 | 0.00 | 0.00 | 54 | 1007.5 |
| 20260830092403 | 71 | 88 | 0.0 | 2.0 | 0.00 | 0.00 | 0.00 | 54 | 1007.5 |
| 20260830092203 | 71 | 88 | 0.0 | 2.0 | 0.00 | 0.00 | 0.00 | 54 | 1007.5 |
| 20260830092004 | 71 | 88 | 0.0 | 1.0 | 0.00 | 0.00 | 0.00 | 54 | 1007.5 |
| 20260830091803 | 71 | 0 | 0.0 | 0.0 | 0.00 | 0.00 | 0.00 | 54 | 1007.5 |
| 20260830091603 | 71 | 0 | 0.0 | 0.0 | 0.00 | 0.00 | 0.00 | 54 | 1007.5 |
| 20260830091403 | 71 | 0 | 0.0 | 0.0 | 0.00 | 0.00 | 0.00 | 54 | 1007.4 |
| 20260830091203 | 71 | 0 | 0.0 | 0.0 | 0.00 | 0.00 | 0.00 | 54 | 1007.3 |
| 20260830091024 | 71 | 0 | 0.0 | 0.0 | 0.00 | 0.00 | 0.00 | 54 | 1007.4 |
| 20260830090803 | 71 | 0 | 0.0 | 0.0 | 0.00 | 0.00 | 0.00 | 54 | 1007.4 |
| 20260830090604 | 71 | 0 | 0.0 | 0.0 | 0.00 | 0.00 | 0.00 | 54 | 1007.4 |
| 20260830090403 | 72 | 0 | 0.0 | 0.0 | 0.00 | 0.00 | 0.00 | 56 | 1007.3 |
| 20260830090224 | 72 | 0 | 0.0 | 0.0 | 0.00 | 0.00 | 0.00 | 53 | 1007.3 |
| 20260830090004 | 72 | 0 | 0.0 | 0.0 | 0.00 | 0.00 | 0.00 | 55 | 1007.3 |
| 20260830085803 | 72 | 0 | 0.0 | 0.0 | 0.00 | 0.00 | 0.00 | 55 | 1007.3 |
| 20260830085603 | 72 | 0 | 0.0 | 0.0 | 0.00 | 0.00 | 0.00 | 55 | 1007.3 |
| 20260830085403 | 72 | 0 | 0.0 | 0.0 | 0.00 | 0.00 | 0.00 | 56 | 1007.3 |
| 20260830085203 | 72 | 0 | 0.0 | 0.0 | 0.00 | 0.00 | 0.00 | 57 | 1007.3 |
| 20260830085003 | 72 | 0 | 0.0 | 0.0 | 0.00 | 0.00 | 0.00 | 56 | 1007.3 |
| 20260830084803 | 72 | 0 | 0.0 | 0.0 | 0.00 | 0.00 | 0.00 | 56 | 1007.4 |
| 20260830084603 | 73 | 0 | 0.0 | 0.0 | 0.00 | 0.00 | 0.00 | 56 | 1007.4 |
| 20260830084403 | 73 | 0 | 0.0 | 0.0 | 0.00 | 0.00 | 0.00 | 55 | 1007.4 |
| 20260830084224 | 73 | 0 | 0.0 | 0.0 | 0.00 | 0.00 | 0.00 | 55 | 1007.5 |
| 20260830084024 | 73 | 0 | 0.0 | 0.0 | 0.00 | 0.00 | 0.00 | 55 | 1007.5 |
| 20260830083824 | 73 | 0 | 0.0 | 0.0 | 0.00 | 0.00 | 0.00 | 55 | 1007.5 |
| 20260830083603 | 73 | 0 | 0.0 | 0.0 | 0.00 | 0.00 | 0.00 | 55 | 1007.4 |
| 20260830083403 | 73 | 86 | 0.0 | 1.0 | 0.00 | 0.00 | 0.00 | 54 | 1007.3 |
| 20260830083203 | 73 | 83 | 0.0 | 2.0 | 0.00 | 0.00 | 0.00 | 54 | 1007.5 |
| 20260830083003 | 73 | 84 | 0.0 | 2.0 | 0.00 | 0.00 | 0.00 | 54 | 1007.4 |
| 20260830082803 | 73 | 86 | 1.0 | 3.0 | 0.00 | 0.00 | 0.00 | 54 | 1007.5 |
| 20260830082624 | 74 | 86 | 1.0 | 3.0 | 0.00 | 0.00 | 0.00 | 53 | 1007.5 |
| 20260830082403 | 74 | 86 | 1.0 | 3.0 | 0.00 | 0.00 | 0.00 | 53 | 1007.5 |
| 20260830082203 | 74 | 86 | 2.0 | 3.0 | 0.00 | 0.00 | 0.00 | 53 | 1007.5 |
| 20260830082003 | 74 | 86 | 2.0 | 3.0 | 0.00 | 0.00 | 0.00 | 53 | 1007.5 |
| 20260830081803 | 74 | 85 | 2.0 | 3.0 | 0.00 | 0.00 | 0.00 | 53 | 1007.5 |
| 20260830081603 | 74 | 85 | 1.0 | 3.0 | 0.00 | 0.00 | 0.00 | 53 | 1007.5 |
| 20260830081403 | 74 | 85 | 1.0 | 3.0 | 0.00 | 0.00 | 0.00 | 53 | 1007.6 |
| 20260830081203 | 74 | 84 | 1.0 | 3.0 | 0.00 | 0.00 | 0.00 | 52 | 1007.6 |
| 20260830081003 | 74 | 84 | 0.0 | 2.0 | 0.00 | 0.00 | 0.00 | 53 | 1007.5 |
| 20260830080824 | 74 | 93 | 0.0 | 1.0 | 0.00 | 0.00 | 0.00 | 53 | 1007.5 |
| 20260830080603 | 74 | 109 | 0.0 | 2.0 | 0.00 | 0.00 | 0.00 | 53 | 1007.6 |
| 20260830080403 | 74 | 106 | 0.0 | 2.0 | 0.00 | 0.00 | 0.00 | 54 | 1007.6 |
| 20260830080204 | 74 | 103 | 1.0 | 3.0 | 0.00 | 0.00 | 0.00 | 54 | 1007.6 |
| 20260830080003 | 74 | 101 | 1.0 | 3.0 | 0.00 | 0.00 | 0.00 | 55 | 1007.6 |
| 20260830075803 | 74 | 101 | 1.0 | 3.0 | 0.00 | 0.00 | 0.00 | 55 | 1007.6 |
| 20260830075604 | 74 | 100 | 2.0 | 3.0 | 0.00 | 0.00 | 0.00 | 55 | 1007.6 |
| 20260830075403 | 74 | 98 | 2.0 | 3.0 | 0.00 | 0.00 | 0.00 | 55 | 1007.5 |
| 20260830075203 | 74 | 98 | 2.0 | 3.0 | 0.00 | 0.00 | 0.00 | 56 | 1007.6 |
| 20260830075003 | 74 | 98 | 2.0 | 3.0 | 0.00 | 0.00 | 0.00 | 56 | 1007.6 |
| 20260830074803 | 74 | 97 | 2.0 | 3.0 | 0.00 | 0.00 | 0.00 | 56 | 1007.6 |
| 20260830074603 | 74 | 95 | 2.0 | 3.0 | 0.00 | 0.00 | 0.00 | 56 | 1007.6 |
| 20260830074403 | 74 | 96 | 2.0 | 3.0 | 0.00 | 0.00 | 0.00 | 57 | 1007.6 |
| 20260830074203 | 74 | 95 | 2.0 | 3.0 | 0.00 | 0.00 | 0.00 | 57 | 1007.6 |
| 20260830074024 | 74 | 95 | 2.0 | 3.0 | 0.00 | 0.00 | 0.00 | 57 | 1007.6 |
| 20260830073803 | 74 | 95 | 2.0 | 3.0 | 0.00 | 0.00 | 0.00 | 58 | 1007.6 |
| 20260830073624 | 74 | 95 | 2.0 | 3.0 | 0.00 | 0.00 | 0.00 | 59 | 1007.7 |
| 20260830073424 | 74 | 95 | 2.0 | 3.0 | 0.00 | 0.00 | 0.00 | 59 | 1007.7 |
| 20260830073203 | 73 | 95 | 2.0 | 3.0 | 0.00 | 0.00 | 0.00 | 59 | 1007.7 |
| 20260830073003 | 73 | 96 | 2.0 | 3.0 | 0.00 | 0.00 | 0.00 | 60 | 1007.7 |
| 20260830072803 | 73 | 96 | 2.0 | 3.0 | 0.00 | 0.00 | 0.00 | 60 | 1007.7 |
| 20260830072603 | 73 | 96 | 2.0 | 3.0 | 0.00 | 0.00 | 0.00 | 60 | 1007.7 |
| 20260830072403 | 73 | 96 | 2.0 | 3.0 | 0.00 | 0.00 | 0.00 | 61 | 1007.8 |
| 20260830072225 | 73 | 96 | 2.0 | 3.0 | 0.00 | 0.00 | 0.00 | 61 | 1007.7 |
| 20260830072024 | 73 | 95 | 2.0 | 3.0 | 0.00 | 0.00 | 0.00 | 61 | 1007.7 |
| 20260830071824 | 73 | 94 | 2.0 | 3.0 | 0.00 | 0.00 | 0.00 | 61 | 1007.8 |
| 20260830071603 | 73 | 95 | 2.0 | 3.0 | 0.00 | 0.00 | 0.00 | 61 | 1007.8 |
| 20260830071403 | 73 | 96 | 2.0 | 4.0 | 0.00 | 0.00 | 0.00 | 61 | 1007.8 |
| 20260830071203 | 73 | 96 | 2.0 | 4.0 | 0.00 | 0.00 | 0.00 | 61 | 1007.8 |
| 20260830071003 | 73 | 97 | 2.0 | 4.0 | 0.00 | 0.00 | 0.00 | 61 | 1007.8 |
| 20260830070803 | 73 | 97 | 2.0 | 4.0 | 0.00 | 0.00 | 0.00 | 61 | 1007.8 |
| 20260830070603 | 73 | 95 | 2.0 | 4.0 | 0.00 | 0.00 | 0.00 | 61 | 1007.8 |
| 20260830070403 | 73 | 93 | 2.0 | 4.0 | 0.00 | 0.00 | 0.00 | 61 | 1007.8 |
| 20260830070224 | 73 | 93 | 2.0 | 4.0 | 0.00 | 0.00 | 0.00 | 61 | 1007.8 |
| 20260830070003 | 73 | 92 | 2.0 | 4.0 | 0.00 | 0.00 | 0.00 | 61 | 1007.9 |
| 20260830065803 | 73 | 92 | 3.0 | 4.0 | 0.00 | 0.00 | 0.00 | 61 | 1007.8 |
| 20260830065603 | 72 | 93 | 3.0 | 4.0 | 0.00 | 0.00 | 0.00 | 61 | 1007.9 |
| 20260830065403 | 72 | 94 | 2.0 | 4.0 | 0.00 | 0.00 | 0.00 | 61 | 1007.8 |
| 20260830065203 | 72 | 93 | 2.0 | 4.0 | 0.00 | 0.00 | 0.00 | 61 | 1007.8 |
| 20260830065003 | 72 | 92 | 2.0 | 4.0 | 0.00 | 0.00 | 0.00 | 61 | 1007.8 |
| 20260830064803 | 72 | 93 | 2.0 | 4.0 | 0.00 | 0.00 | 0.00 | 61 | 1007.8 |
| 20260830064603 | 72 | 91 | 2.0 | 4.0 | 0.00 | 0.00 | 0.00 | 61 | 1007.8 |
| 20260830064403 | 72 | 89 | 2.0 | 4.0 | 0.00 | 0.00 | 0.00 | 60 | 1007.8 |
| 20260830064203 | 72 | 89 | 2.0 | 4.0 | 0.00 | 0.00 | 0.00 | 60 | 1007.8 |
| 20260830064003 | 72 | 88 | 1.0 | 3.0 | 0.00 | 0.00 | 0.00 | 60 | 1007.8 |
| 20260830063803 | 72 | 86 | 1.0 | 3.0 | 0.00 | 0.00 | 0.00 | 59 | 1007.7 |
| 20260830063603 | 73 | 85 | 1.0 | 3.0 | 0.00 | 0.00 | 0.00 | 59 | 1007.8 |
| 20260830063403 | 73 | 84 | 0.0 | 2.0 | 0.00 | 0.00 | 0.00 | 59 | 1007.8 |
| 20260830063203 | 73 | 91 | 0.0 | 1.0 | 0.00 | 0.00 | 0.00 | 59 | 1007.8 |
| 20260830063024 | 73 | 91 | 0.0 | 1.0 | 0.00 | 0.00 | 0.00 | 58 | 1007.8 |
| 20260830062804 | 73 | 91 | 0.0 | 1.0 | 0.00 | 0.00 | 0.00 | 58 | 1007.8 |
| 20260830062603 | 73 | 0 | 0.0 | 0.0 | 0.00 | 0.00 | 0.00 | 57 | 1007.7 |
| 20260830062403 | 73 | 0 | 0.0 | 0.0 | 0.00 | 0.00 | 0.00 | 57 | 1007.7 |
| 20260830062203 | 73 | 0 | 0.0 | 0.0 | 0.00 | 0.00 | 0.00 | 57 | 1007.8 |
| 20260830062003 | 73 | 0 | 0.0 | 0.0 | 0.00 | 0.00 | 0.00 | 56 | 1007.7 |
| 20260830061803 | 73 | 100 | 0.0 | 1.0 | 0.00 | 0.00 | 0.00 | 56 | 1007.7 |
| 20260830061603 | 73 | 100 | 0.0 | 1.0 | 0.00 | 0.00 | 0.00 | 56 | 1007.7 |
| 20260830061403 | 73 | 100 | 0.0 | 1.0 | 0.00 | 0.00 | 0.00 | 56 | 1007.6 |
| 20260830061203 | 73 | 104 | 0.0 | 2.0 | 0.00 | 0.00 | 0.00 | 55 | 1007.6 |
| 20260830061003 | 73 | 103 | 0.0 | 2.0 | 0.00 | 0.00 | 0.00 | 55 | 1007.6 |
| 20260830060824 | 73 | 97 | 0.0 | 2.0 | 0.00 | 0.00 | 0.00 | 55 | 1007.6 |
| 20260830060604 | 73 | 94 | 1.0 | 2.0 | 0.00 | 0.00 | 0.00 | 55 | 1007.6 |
| 20260830060424 | 73 | 93 | 1.0 | 2.0 | 0.00 | 0.00 | 0.00 | 55 | 1007.6 |
| 20260830060203 | 73 | 91 | 1.0 | 3.0 | 0.00 | 0.00 | 0.00 | 55 | 1007.6 |
| 20260830060003 | 73 | 89 | 1.0 | 3.0 | 0.00 | 0.00 | 0.00 | 54 | 1007.6 |
| 20260830055803 | 73 | 89 | 1.0 | 3.0 | 0.00 | 0.00 | 0.00 | 54 | 1007.6 |
| 20260830055603 | 73 | 90 | 1.0 | 3.0 | 0.00 | 0.00 | 0.00 | 54 | 1007.6 |
| 20260830055403 | 73 | 91 | 1.0 | 3.0 | 0.00 | 0.00 | 0.00 | 54 | 1007.5 |
| 20260830055203 | 73 | 93 | 1.0 | 3.0 | 0.00 | 0.00 | 0.00 | 54 | 1007.6 |
| 20260830055024 | 73 | 93 | 1.0 | 3.0 | 0.00 | 0.00 | 0.00 | 54 | 1007.6 |
| 20260830054824 | 73 | 95 | 1.0 | 3.0 | 0.00 | 0.00 | 0.00 | 54 | 1007.6 |
| 20260830054603 | 73 | 95 | 1.0 | 3.0 | 0.00 | 0.00 | 0.00 | 54 | 1007.7 |
| 20260830054403 | 73 | 95 | 1.0 | 3.0 | 0.00 | 0.00 | 0.00 | 54 | 1007.7 |
| 20260830054203 | 73 | 92 | 1.0 | 2.0 | 0.00 | 0.00 | 0.00 | 54 | 1007.7 |
| 20260830054003 | 73 | 93 | 1.0 | 2.0 | 0.00 | 0.00 | 0.00 | 54 | 1007.7 |
| 20260830053803 | 73 | 92 | 1.0 | 3.0 | 0.00 | 0.00 | 0.00 | 54 | 1007.8 |
| 20260830053603 | 74 | 91 | 1.0 | 3.0 | 0.00 | 0.00 | 0.00 | 54 | 1007.7 |
| 20260830053403 | 74 | 91 | 2.0 | 3.0 | 0.00 | 0.00 | 0.00 | 54 | 1007.7 |
| 20260830053203 | 74 | 91 | 1.0 | 3.0 | 0.00 | 0.00 | 0.00 | 54 | 1007.6 |
| 20260830053003 | 74 | 90 | 1.0 | 3.0 | 0.00 | 0.00 | 0.00 | 54 | 1007.7 |
| 20260830052803 | 74 | 91 | 1.0 | 3.0 | 0.00 | 0.00 | 0.00 | 53 | 1007.6 |
| 20260830052603 | 74 | 92 | 0.0 | 3.0 | 0.00 | 0.00 | 0.00 | 53 | 1007.6 |
| 20260830052403 | 74 | 89 | 0.0 | 2.0 | 0.00 | 0.00 | 0.00 | 53 | 1007.7 |
| 20260830052203 | 74 | 89 | 0.0 | 1.0 | 0.00 | 0.00 | 0.00 | 53 | 1007.7 |
| 20260830052003 | 74 | 89 | 0.0 | 1.0 | 0.00 | 0.00 | 0.00 | 53 | 1007.7 |
| 20260830051803 | 74 | 89 | 0.0 | 1.0 | 0.00 | 0.00 | 0.00 | 53 | 1007.7 |
| 20260830051603 | 74 | 89 | 0.0 | 1.0 | 0.00 | 0.00 | 0.00 | 53 | 1007.7 |
| 20260830051404 | 75 | 90 | 0.0 | 1.0 | 0.00 | 0.00 | 0.00 | 53 | 1007.7 |
| 20260830051203 | 75 | 97 | 0.0 | 1.0 | 0.00 | 0.00 | 0.00 | 53 | 1007.7 |
| 20260830051003 | 75 | 98 | 0.0 | 2.0 | 0.00 | 0.00 | 0.00 | 53 | 1007.7 |
| 20260830050803 | 75 | 98 | 0.0 | 2.0 | 0.00 | 0.00 | 0.00 | 53 | 1007.7 |
| 20260830050603 | 75 | 98 | 0.0 | 2.0 | 0.00 | 0.00 | 0.00 | 52 | 1007.7 |
| 20260830050403 | 75 | 98 | 0.0 | 2.0 | 0.00 | 0.00 | 0.00 | 52 | 1007.7 |
| 20260830050203 | 75 | 98 | 0.0 | 2.0 | 0.00 | 0.00 | 0.00 | 52 | 1007.7 |
| 20260830050024 | 75 | 82 | 0.0 | 1.0 | 0.00 | 0.00 | 0.00 | 52 | 1007.6 |
| 20260830045824 | 75 | 82 | 0.0 | 1.0 | 0.00 | 0.00 | 0.00 | 52 | 1007.6 |
| 20260830045603 | 75 | 82 | 0.0 | 1.0 | 0.00 | 0.00 | 0.00 | 51 | 1007.6 |
| 20260830045424 | 75 | 0 | 0.0 | 0.0 | 0.00 | 0.00 | 0.00 | 52 | 1007.7 |
| 20260830045203 | 76 | 0 | 0.0 | 0.0 | 0.00 | 0.00 | 0.00 | 52 | 1007.6 |
| 20260830045003 | 76 | 0 | 0.0 | 0.0 | 0.00 | 0.00 | 0.00 | 51 | 1007.6 |
| 20260830044824 | 76 | 0 | 0.0 | 0.0 | 0.00 | 0.00 | 0.00 | 51 | 1007.6 |
| 20260830044603 | 76 | 0 | 0.0 | 0.0 | 0.00 | 0.00 | 0.00 | 51 | 1007.6 |
| 20260830044424 | 76 | 0 | 0.0 | 0.0 | 0.00 | 0.00 | 0.00 | 51 | 1007.6 |
| 20260830044203 | 76 | 0 | 0.0 | 0.0 | 0.00 | 0.00 | 0.00 | 51 | 1007.5 |
| 20260830044024 | 76 | 0 | 0.0 | 0.0 | 0.00 | 0.00 | 0.00 | 51 | 1007.5 |
| 20260830043803 | 76 | 0 | 0.0 | 0.0 | 0.00 | 0.00 | 0.00 | 50 | 1007.6 |
| 20260830043603 | 76 | 0 | 0.0 | 0.0 | 0.00 | 0.00 | 0.00 | 50 | 1007.7 |
| 20260830043403 | 76 | 94 | 0.0 | 2.0 | 0.00 | 0.00 | 0.00 | 50 | 1007.6 |
| 20260830043203 | 76 | 94 | 0.0 | 2.0 | 0.00 | 0.00 | 0.00 | 50 | 1007.7 |
| 20260830043004 | 76 | 96 | 0.0 | 2.0 | 0.00 | 0.00 | 0.00 | 50 | 1007.6 |
| 20260830042824 | 76 | 101 | 0.0 | 2.0 | 0.00 | 0.00 | 0.00 | 51 | 1007.6 |
| 20260830042624 | 76 | 102 | 0.0 | 2.0 | 0.00 | 0.00 | 0.00 | 50 | 1007.5 |
| 20260830042403 | 76 | 106 | 0.0 | 2.0 | 0.00 | 0.00 | 0.00 | 50 | 1007.6 |
| 20260830042203 | 76 | 109 | 0.0 | 2.0 | 0.00 | 0.00 | 0.00 | 50 | 1007.6 |
| 20260830042003 | 76 | 110 | 0.0 | 2.0 | 0.00 | 0.00 | 0.00 | 50 | 1007.6 |
| 20260830041803 | 76 | 331 | 0.0 | 2.0 | 0.00 | 0.00 | 0.00 | 51 | 1007.5 |
| 20260830041603 | 76 | 339 | 0.0 | 2.0 | 0.00 | 0.00 | 0.00 | 50 | 1007.5 |
| 20260830041403 | 77 | 339 | 0.0 | 2.0 | 0.00 | 0.00 | 0.00 | 50 | 1007.5 |
| 20260830041204 | 77 | 339 | 0.0 | 2.0 | 0.00 | 0.00 | 0.00 | 50 | 1007.5 |
| 20260830041003 | 77 | 340 | 0.0 | 2.0 | 0.00 | 0.00 | 0.00 | 50 | 1007.5 |
| 20260830040824 | 77 | 109 | 0.0 | 1.0 | 0.00 | 0.00 | 0.00 | 50 | 1007.5 |
| 20260830040603 | 77 | 103 | 0.0 | 1.0 | 0.00 | 0.00 | 0.00 | 50 | 1007.4 |
| 20260830040404 | 77 | 103 | 0.0 | 1.0 | 0.00 | 0.00 | 0.00 | 49 | 1007.3 |
| 20260830040203 | 77 | 101 | 0.0 | 2.0 | 0.00 | 0.00 | 0.00 | 50 | 1007.5 |
| 20260830040004 | 77 | 97 | 0.0 | 3.0 | 0.00 | 0.00 | 0.00 | 49 | 1007.5 |
| 20260830035803 | 77 | 97 | 0.0 | 3.0 | 0.00 | 0.00 | 0.00 | 49 | 1007.4 |
| 20260830035624 | 77 | 97 | 0.0 | 3.0 | 0.00 | 0.00 | 0.00 | 49 | 1007.4 |
| 20260830035403 | 77 | 97 | 0.0 | 3.0 | 0.00 | 0.00 | 0.00 | 49 | 1007.3 |
| 20260830035203 | 77 | 91 | 0.0 | 3.0 | 0.00 | 0.00 | 0.00 | 49 | 1007.3 |
| 20260830035003 | 77 | 49 | 0.0 | 1.0 | 0.00 | 0.00 | 0.00 | 49 | 1007.3 |
| 20260830034803 | 77 | 49 | 0.0 | 1.0 | 0.00 | 0.00 | 0.00 | 49 | 1007.3 |
| 20260830034603 | 77 | 20 | 0.0 | 1.0 | 0.00 | 0.00 | 0.00 | 49 | 1007.3 |
| 20260830034403 | 78 | 20 | 0.0 | 1.0 | 0.00 | 0.00 | 0.00 | 49 | 1007.2 |
| 20260830034203 | 78 | 0 | 0.0 | 0.0 | 0.00 | 0.00 | 0.00 | 49 | 1007.2 |
| 20260830034003 | 78 | 0 | 0.0 | 0.0 | 0.00 | 0.00 | 0.00 | 48 | 1007.2 |
| 20260830033803 | 78 | 0 | 0.0 | 0.0 | 0.00 | 0.00 | 0.00 | 48 | 1007.2 |
| 20260830033603 | 78 | 105 | 0.0 | 1.0 | 0.00 | 0.00 | 0.00 | 48 | 1007.2 |
| 20260830033403 | 78 | 105 | 0.0 | 1.0 | 0.00 | 0.00 | 0.00 | 48 | 1007.2 |
| 20260830033203 | 78 | 105 | 0.0 | 1.0 | 0.00 | 0.00 | 0.00 | 48 | 1007.2 |
| 20260830033003 | 78 | 105 | 0.0 | 1.0 | 0.00 | 0.00 | 0.00 | 48 | 1007.2 |
| 20260830032803 | 78 | 105 | 0.0 | 1.0 | 0.00 | 0.00 | 0.00 | 47 | 1007.1 |
| 20260830032603 | 78 | 0 | 0.0 | 0.0 | 0.00 | 0.00 | 0.00 | 47 | 1007.1 |
| 20260830032403 | 78 | 0 | 0.0 | 0.0 | 0.00 | 0.00 | 0.00 | 47 | 1007.1 |
| 20260830032203 | 78 | 0 | 0.0 | 0.0 | 0.00 | 0.00 | 0.00 | 47 | 1007.1 |
| 20260830032003 | 78 | 0 | 0.0 | 0.0 | 0.00 | 0.00 | 0.00 | 47 | 1007.0 |
| 20260830031803 | 79 | 0 | 0.0 | 0.0 | 0.00 | 0.00 | 0.00 | 47 | 1007.0 |
| 20260830031603 | 79 | 0 | 0.0 | 0.0 | 0.00 | 0.00 | 0.00 | 46 | 1007.0 |
| 20260830031404 | 79 | 0 | 0.0 | 0.0 | 0.00 | 0.00 | 0.00 | 46 | 1007.0 |
| 20260830031204 | 79 | 0 | 0.0 | 0.0 | 0.00 | 0.00 | 0.00 | 46 | 1006.9 |
| 20260830031004 | 79 | 0 | 0.0 | 0.0 | 0.00 | 0.00 | 0.00 | 45 | 1006.9 |
| 20260830030803 | 79 | 0 | 0.0 | 0.0 | 0.00 | 0.00 | 0.00 | 45 | 1006.9 |
| 20260830030604 | 79 | 0 | 0.0 | 0.0 | 0.00 | 0.00 | 0.00 | 45 | 1006.9 |
| 20260830030424 | 79 | 0 | 0.0 | 0.0 | 0.00 | 0.00 | 0.00 | 45 | 1006.9 |
| 20260830030203 | 80 | 88 | 0.0 | 1.0 | 0.00 | 0.00 | 0.00 | 44 | 1006.9 |
| 20260830030003 | 80 | 88 | 0.0 | 1.0 | 0.00 | 0.00 | 0.00 | 44 | 1006.8 |
| 20260830025803 | 80 | 88 | 0.0 | 1.0 | 0.00 | 0.00 | 0.00 | 44 | 1006.8 |
| 20260830025624 | 80 | 88 | 0.0 | 1.0 | 0.00 | 0.00 | 0.00 | 43 | 1006.8 |
| 20260830025403 | 80 | 88 | 0.0 | 1.0 | 0.00 | 0.00 | 0.00 | 44 | 1006.7 |
| 20260830025203 | 80 | 0 | 0.0 | 0.0 | 0.00 | 0.00 | 0.00 | 43 | 1006.7 |
| 20260830025024 | 80 | 0 | 0.0 | 0.0 | 0.00 | 0.00 | 0.00 | 43 | 1006.7 |
| 20260830024803 | 81 | 0 | 0.0 | 0.0 | 0.00 | 0.00 | 0.00 | 43 | 1006.6 |